GFSGBSN_prec_radar_000.txt.gz
Reflectivity
-20 -20 -20 5 -20 -20 -20 -14 14 15 15 8 13 16 14 16 14 15 15 12 17 16 11 13 16 14 -17 -20 -20 -20 -20 -20 -20 -20 -20 -20 -20 -20 -20 -20 -20 -20 -18 -15 -20 -20 -20
-20 -20 -19 9 -20 -20 -20 -20 -2 12 13 12 16 15 13 16 5 16 15 17 15 12 15 15 15 17 -19 -20 -20 -20 -20 -20 -20 -20 -20 -20 -19 -6 -9 -15 -20 -20 -20 -20 -20 -20 -20
-20 -20 -20 -19 -20 -20 -20 -20 -20 -12 13 12 11 15 14 2 11 16 16 16 15 15 16 16 14 -16 -20 -20 -20 -20 -20 -20 -20 -20 -20 -20 -20 -20 -20 -20 -20 -20 -20 -20 -20 -20 -20
-20 -20 -20 -20 -20 -20 -20 -20 -20 -13 12 14 13 15 12 -20 14 15 15 15 15 15 15 16 14 -6 -20 -20 -20 -20 -20 -20 -20 -20 -20 -19 -20 -20 -20 -20 -20 -20 -20 -20 -20 -20 -20
-20 -20 -20 -20 -20 -20 -20 -20 -20 6 13 13 13 13 9 8 15 15 15 16 16 15 16 13 -8 -20 -20 -20 -20 -20 -20 -20 -20 -20 1 -20 -20 -20 -20 -19 -20 -20 -20 -20 -20 -20 -20
-20 -20 -20 -20 -20 -20 -20 -20 -20 11 11 13 7 16 14 13 15 17 16 14 13 15 7 4 -20 -20 -20 -20 -20 -20 -20 -16 -20 -20 -20 -20 -20 -20 -20 -20 -20 -20 -20 -20 -20 -20 -20
-20 -20 -20 -20 -20 -20 -20 -20 -20 12 14 13 13 7 -20 -20 16 15 10 -10 -20 -20 -20 -20 -20 -20 -20 -20 -20 -20 -20 -20 -20 -20 -20 -20 -20 -20 -20 -20 -20 -20 -20 -20 -20 -20 -20
-20 -20 -20 -20 -20 -20 -20 -20 -20 -20 -20 -20 -20 -20 -20 14 17 14 3 -20 -20 -20 -20 -20 -20 -20 -20 -20 -20 -20 -20 -20 -20 -20 -20 -20 -20 -20 -20 -20 -20 -20 -20 -20 -20 -20 -20
-20 -20 -20 -20 -20 -20 -20 -20 -20 -20 -20 -20 -20 -20 -20 15 16 8 -19 -20 -20 -20 -20 -20 -20 -20 -20 -20 -20 -20 -20 -20 -20 -20 -20 -20 -20 -20 -20 -20 -20 -20 -20 -20 -20 -20 -20
-16 -20 -20 -20 -20 -20 -20 -20 -20 -20 -20 -20 -20 -20 -14 17 1 -20 -20 -20 -20 -20 -20 -20 -20 -20 -20 -20 -20 -20 -20 -20 -20 -20 -20 -20 -20 -20 -20 -20 -20 -20 -20 -20 -20 -20 -20
-9 -20 -20 -20 -20 -20 -20 -20 -20 -20 -20 -20 -20 -20 -17 -19 -20 -20 -20 -20 -20 -20 -20 -20 -20 -20 -20 -20 -20 -20 -20 -20 -20 -20 -20 -20 -20 -20 -20 -20 -20 -20 -20 -20 -20 -20 -20
7 -20 -20 -20 -20 -20 -20 -20 -20 -20 -20 -20 -20 -20 2 -13 -20 -20 -20 -20 -20 -20 -20 -20 -20 -20 -20 -20 -20 -20 -20 -20 -20 -20 -20 -20 -20 -20 -20 -20 -20 -20 -20 -20 -20 -20 -20
21 -20 -20 -20 -20 -20 -20 -20 -20 -20 -20 -20 -20 -20 4 -20 -20 -20 -20 -20 -20 -20 -20 -20 -20 -20 -20 -20 -20 -20 -20 -20 -20 -20 -20 -20 -20 -20 -20 -20 -20 -20 -20 -20 -20 -20 -20
21 -20 -20 -20 -20 -20 -20 -20 -20 -20 -20 -20 -20 -19 -19 -20 -20 -20 -20 -20 -20 -20 -20 -20 -20 -20 -20 -20 -20 -20 -20 -20 -20 -20 -20 -20 -20 -20 -20 -20 -20 -20 -20 -20 -20 -20 -20
16 -20 -20 -20 -20 -20 -20 -20 -20 -20 -20 -20 -20 -20 -20 -20 -20 -20 -20 -20 -20 -20 -20 -20 -20 -20 -20 -20 -20 -20 -20 -20 -20 -20 -20 -20 -20 -20 -20 -20 -20 -20 -20 -20 -20 -20 -20
26 -20 -20 -20 -20 -20 -20 -20 -20 -20 -20 -20 -20 -20 -20 -20 -20 -20 -20 -20 -20 -20 -20 -20 -20 -20 -20 -20 -20 -20 -20 -20 -20 -20 -20 -20 -20 -20 -20 -20 -20 -20 -20 -20 -20 -20 -20
20 -20 -20 -20 -20 -20 -20 -6 -20 -20 -20 -20 -20 -20 -20 -20 -20 -20 -20 -20 -20 -20 -20 -20 -20 -20 -20 -20 -20 -20 -20 -20 -20 -20 -20 -20 -20 -20 -20 -20 -20 -20 -20 -20 -20 -20 -20
21 -20 -20 -20 -20 -20 -3 11 -20 -20 -20 -20 -20 -20 -20 -20 -20 -20 -20 -20 -20 -20 -20 -20 -20 -20 -20 -20 -20 -20 -20 -20 -20 -20 -20 -20 -20 -20 -20 -20 -20 -20 -20 -20 -20 -20 -20
6 -20 -20 -20 -20 -19 8 9 -20 -20 -20 -20 -20 -20 -20 -20 -20 -20 -20 -20 -20 -20 -20 -20 -20 -20 -20 -20 -20 -20 -20 -20 -20 -20 -20 -20 -20 -20 -20 -20 -20 -20 -20 -20 -20 -20 -20
-1 -9 -20 -20 -20 8 -20 -20 -20 -20 -20 -20 -20 -20 -20 -20 -20 -20 -20 -20 -20 -20 -20 -20 -20 -20 -20 -20 -20 -20 -20 -20 -20 -20 -20 -20 -20 -20 -20 -20 -20 -20 -20 -20 -20 -20 -20
12 -20 -20 -20 9 9 -4 -20 -20 -20 -20 -20 -20 -20 -20 -20 -20 -20 -20 -20 -20 -20 -20 -20 -20 -20 -20 -20 -20 -20 -20 -20 -20 -20 -20 -20 -20 -20 -20 -20 -20 -20 -20 -20 -20 -20 -20
5 -20 -20 -12 0 11 9 -20 -20 -20 -20 -20 -20 -20 -20 -20 -20 -20 -20 -20 -20 -20 -20 -20 -20 -20 -20 -20 -20 -20 -20 -20 -20 -20 -20 -20 -20 -20 -20 -20 -20 -20 -20 -20 -20 -20 -20
-20 1 3 3 10 4 -20 -20 -20 -20 -20 -20 -20 -20 -20 -20 -20 -20 -20 -20 -20 -20 -20 -20 -20 -20 -20 -20 -20 -20 -20 -20 -20 -20 -20 -20 -20 -20 -20 -20 -20 -20 -20 -20 -20 -20 -20
-6 4 5 7 -20 -20 -20 -20 -20 -20 -20 -20 -20 -20 -20 -20 -20 -20 -20 -20 -20 -20 -20 -20 -20 -20 -20 -20 -20 -20 -20 -20 -20 -20 -20 -20 -20 -20 -20 -20 -20 -20 -20 -20 -20 -20 -20
-20 -18 -19 -20 -20 -20 -20 -20 -20 -20 -20 -20 -20 -20 -20 -20 -20 -20 -20 -20 -20 -20 -20 -20 -20 -20 -20 -20 -20 -20 -20 -20 -20 -20 -20 -20 -20 -20 -20 -20 -20 -20 -20 -20 -20 -20 -20
-20 -20 -20 -20 -20 -20 -20 -20 -20 -20 -20 -20 -20 -20 -20 -20 -20 -20 -20 -20 -20 -20 -20 -20 -20 -20 -20 -20 -20 -20 -20 -20 -20 -20 -20 -20 -20 -20 -20 -20 -20 -20 -20 -20 -20 -20 -20
-20 -20 -20 -20 -20 -20 -20 -20 -20 -20 -20 -20 -20 -20 -20 -20 -20 -20 -20 -20 -20 -20 -20 -20 -20 -20 -20 -20 -20 -20 -20 -20 -20 -20 -20 -20 -20 -20 -20 -20 -20 -20 -20 -20 -20 -20 -20
-20 -20 -11 -20 -20 -20 -20 -20 -20 -20 -20 -19 -20 -20 -20 -20 -20 -20 -20 -20 -20 -20 -20 -20 -20 -20 -20 -20 -20 -20 -20 -20 -20 -20 -20 -20 -20 -20 -20 -20 -20 -20 -20 -20 -20 -20 -20
-20 -20 -20 -20 -20 -20 -18 9 5 -20 -20 23 3 -20 -20 -20 -20 -20 -20 -20 -20 -20 -20 -20 -20 -20 -20 -20 -20 -20 -20 -20 -20 -20 -20 -20 -20 -20 -20 -20 -20 -20 -20 -20 -20 -20 -20

GFSGBSN_prec_radar_003.txt.gz
Reflectivity
-20 -20 -20 -20 -20 -8 -16 -20 -20 -20 11 16 11 16 12 16 16 8 15 17 2 16 17 16 16 15 -17 -20 -20 -20 -20 -12 -20 -20 -20 -20 -20 -20 -20 -19 -20 -20 -20 -20 -20 -20 -20
-20 -20 -20 -20 -20 -20 -20 -20 -20 -20 13 15 9 14 -4 15 15 15 15 14 17 17 17 16 16 16 -20 -20 -20 -20 -20 -14 -20 -20 -20 -20 -20 -20 -14 -18 -20 -20 -20 -17 -20 -20 -20
-11 -20 -20 -20 -20 -20 -20 -20 -20 -20 -11 13 8 16 13 15 10 16 17 15 16 17 17 15 15 -15 -18 -20 -20 -20 -20 -18 -20 -20 -20 -20 -20 -20 -20 -20 -20 -20 -20 -20 -20 -20 -20
1 -20 -20 -20 -20 -20 -20 -20 -20 -20 -20 6 15 16 13 15 15 17 18 18 17 16 16 16 14 -20 -20 -20 -20 -19 -20 -16 -20 -20 -20 -20 -19 -15 -10 -20 -20 -20 -20 -20 -20 -20 -20
-7 -3 -20 -20 -20 -20 -20 -20 -20 -20 -20 -19 15 14 16 9 15 18 17 15 13 15 15 16 -13 -11 -20 -20 -20 10 -20 -20 -20 -20 -20 -20 -20 -20 -20 -20 -20 -20 -20 -20 -20 -20 -20
16 -9 -20 -20 -20 -20 -20 -20 -20 -20 -20 -8 16 13 15 12 15 19 15 12 14 14 10 -5 -20 -20 -20 -20 -20 -20 -20 -20 -20 -20 -20 -20 -20 -20 -20 -20 -20 -20 -20 -20 -20 -20 -20
8 -8 -6 -20 -20 -20 -20 -20 -20 -20 -20 8 16 15 12 15 17 17 -8 -16 -18 -8 -16 -20 -20 -20 -20 -20 -20 -20 -20 -20 -20 -20 -20 -20 -20 -20 -20 -20 -20 -20 -20 -20 -20 -20 -20
9 17 8 -20 -20 -20 -20 -20 -20 -20 -16 14 13 17 13 16 18 14 -14 -20 -20 -20 -20 -20 -20 -20 -20 -20 -20 -20 -20 -13 -10 -20 -20 -20 -20 -20 -20 -20 -20 -20 -20 -20 -20 -20 -20
-5 -8 3 -15 -20 -20 -20 -20 -20 -20 -7 13 15 15 16 17 16 3 -20 -20 -20 -20 -20 -20 -20 -20 -20 -20 -20 -20 -20 -20 -6 -20 -20 -20 -20 -20 -20 -20 -20 -20 -20 -20 -20 -20 -20
-20 -16 14 2 -20 -20 -20 -20 -20 -20 -20 15 16 14 17 13 -14 -20 -20 -20 -20 -20 -20 -20 -20 -20 -20 -20 -20 -20 -20 -20 -20 -20 -20 -20 -20 -20 -20 -20 -20 -20 -20 -20 -20 -20 -20
-20 -20 -3 3 -20 -20 -20 -20 -20 -20 -20 -19 16 14 17 -20 -20 -20 -20 -20 -20 -20 -20 -20 -20 -20 -20 -20 -20 -20 -20 -20 -20 -20 -20 -20 -20 -20 -20 -20 -20 -20 -20 -20 -20 -20 -20
10 10 -0 7 -20 -20 -20 -20 -20 -20 -20 4 17 14 16 -19 -20 -20 -20 -20 -20 -20 -20 -20 -20 -20 -20 -20 -20 -20 -20 -20 -20 -20 -20 -20 -20 -20 -20 -20 -20 -20 -20 -20 -20 -20 -20
-20 -19 -12 16 -20 -20 -20 -20 -20 -20 -20 15 16 12 12 -20 -20 -20 -20 -20 -20 -20 -20 -20 -20 -20 -20 -20 -20 -20 -20 -20 -20 -20 -20 -20 -20 -20 -20 -20 -20 -20 -20 -20 -20 -20 -20
18 -20 -20 12 -20 -20 -20 -20 -20 -20 -20 15 16 14 10 -20 -20 -20 -20 -20 -20 -20 -20 -20 -20 -20 -20 -20 -20 -20 -20 -20 -20 -20 -20 -20 -20 -20 -20 -20 -20 -20 -20 -20 -20 -20 -20
-17 -20 3 15 -20 -20 -20 -20 -20 -20 7 17 10 10 -14 -20 -20 -20 -20 -20 -20 -20 -20 -20 -20 -20 -20 -20 -20 -20 -20 -20 -20 -20 -20 -20 -20 -20 -20 -20 -20 -20 -20 -20 -20 -20 -20
23 8 4 12 -20 -20 -20 -20 -20 -20 14 13 -20 -20 -20 -20 -20 -20 -20 -20 -20 -20 -20 -20 -20 -20 -20 -20 -20 -20 -20 -20 -20 -20 -20 -20 -20 -20 -20 -20 -20 -20 -20 -20 -20 -20 -20
-20 -20 27 25 -20 -20 -20 -20 -20 -20 15 -4 -20 -20 -20 -20 -20 -20 -20 -20 -20 -20 -20 -20 -20 -20 -20 -20 -20 -20 -20 -20 -20 -20 -20 -20 -20 -20 -20 -20 -20 -20 -20 -20 -20 -20 -20
10 -20 37 30 -20 -20 -20 -20 -20 -15 16 13 -20 -20 -20 -20 -20 -20 -20 -20 -20 -20 -20 -20 -20 -20 -20 -20 -20 -20 -20 -20 -20 -20 -20 -20 -20 -20 -20 -20 -20 -20 -20 -20 -20 -20 -20
13 22 31 25 -6 -20 -20 -15 14 8 6 -20 -20 -20 -20 -20 -20 -20 -20 -20 -20 -20 -20 -20 -20 -20 -20 -20 -20 -20 -20 -20 -20 -20 -20 -20 -20 -20 -20 -20 -20 -20 -20 -20 -20 -20 -20
21 23 28 27 -20 -20 -20 7 8 -20 -20 -20 -20 -14 -20 -20 -20 -20 -20 -20 -20 -20 -20 -20 -20 -20 -20 -20 -20 -20 -20 -20 -20 -20 -20 -20 -20 -20 -20 -20 -20 -20 -20 -20 -20 -20 -20
25 41 24 22 -5 -20 6 -18 -15 -20 -20 -20 -20 -20 -20 -20 -20 -20 -20 -20 -20 -20 -20 -20 -20 -20 -20 -20 -20 -20 -20 -20 -20 -20 -20 -20 -20 -20 -20 -20 -20 -20 -20 -20 -20 -20 -20
40 23 24 8 -10 -20 -10 -20 3 -20 -13 -20 -20 -20 -20 -20 -20 -20 -20 -20 -20 -20 -20 -20 -20 -20 -20 -20 -20 -20 -20 -20 -20 -20 -20 -20 -20 -20 -20 -20 -20 -20 -20 -20 -20 -20 -20
39 24 12 2 -14 -14 -1 -15 -17 -20 -20 -20 -20 -20 -20 -20 -20 -20 -20 -20 -20 -20 -20 -20 -20 -20 -20 -20 -20 -20 -20 -20 -20 -20 -20 -20 -20 -20 -20 -20 -20 -20 -20 -20 -20 -20 -20
26 6 -2 -20 7 10 8 -20 -20 -20 -20 -20 -20 -20 -20 -20 -20 -20 -20 -20 -20 -20 -20 -20 -20 -20 -20 -20 -20 -20 -20 -20 -20 -20 -20 -20 -20 -20 -20 -20 -20 -20 -20 -20 -20 -20 -20
6 5 -20 -5 -9 -20 -20 -20 -20 -20 -20 -20 -20 -20 -20 -20 -20 -20 -20 -20 -20 -20 -20 -20 -20 -20 -20 -20 -20 -20 -20 -20 -20 -20 -20 -20 -20 -20 -20 -20 -20 -20 -20 -20 -20 -20 -20
6 -20 -20 -20 -20 -20 -20 -20 -20 -20 -20 -20 -20 -20 -20 -20 -20 -20 -20 -20 -20 -20 -20 -20 -20 -20 -20 -20 -20 -20 -20 -20 -20 -20 -20 -20 -20 -20 -20 -20 -20 -20 -20 -20 -20 -20 -20
-5 -20 -20 -20 -20 -20 -20 -20 -20 -20 -20 -20 -20 -20 -20 -20 -20 -20 -20 -20 -20 -20 -20 -20 -20 -20 -20 -20 -20 -20 -20 -20 -20 -20 -20 -20 -20 -20 -20 -20 -20 -20 -20 -20 -20 -20 -20
-13 -20 -20 -20 -20 -20 -20 -20 -20 -20 -20 -20 -20 -20 -20 -20 -20 -20 -20 -20 -20 -20 -20 -20 -20 -20 -20 -20 -20 -20 -20 -20 -20 -20 -20 -20 -20 -20 -20 -20 -20 -20 -20 -20 -20 -20 -20
-20 -20 -20 -20 -20 11 9 -20 -20 -20 -20 -20 -20 -16 -20 -20 -20 -20 -20 -20 -20 -20 -20 -20 -20 -20 -20 -20 -20 -20 -20 -20 -20 -20 -20 -20 -20 -20 -20 -20 -20 -20 -20 -20 -20 -20 -20

GFSGBSN_prec_radar_006.txt.gz
Reflectivity
7 -18 -20 -20 -20 -20 -20 -20 -20 -20 -20 -20 10 -20 10 -20 12 11 -13 6 -20 -11 9 11 9 -12 -20 -20 -20 -20 -20 -20 -20 -20 -20 -20 -20 -20 -20 -20 -20 -20 -19 -20 -20 -20 -18
11 1 -20 -20 -20 -20 -20 -20 -20 -20 -20 -20 11 -11 10 5 11 11 11 -3 -15 -10 8 6 9 -4 -20 -20 -20 -20 -20 -14 3 -20 -20 -20 -20 -20 -20 -20 -20 -20 -20 -20 7 -20 -20
-20 13 -18 -20 -20 -20 -20 -20 -20 -20 -20 -20 11 -1 4 -19 11 12 -4 -19 -15 -20 -3 8 6 -19 -20 -20 -20 -20 -20 -2 -20 -20 -20 -20 -20 -20 -20 -17 -6 -20 -20 -19 -9 -20 -20
-20 -5 -2 -20 -20 -20 -20 -20 -20 -20 -20 -20 9 12 8 -18 11 -12 -18 -6 -20 -1 4 -5 8 -20 -20 -20 -20 -20 -12 -13 -20 -20 -20 -20 -20 -20 -20 -20 -20 -20 -20 -20 -20 -20 -20
-20 -20 10 8 -20 -20 -20 -20 -20 -20 -20 -20 -0 12 11 9 9 5 -20 -20 -20 4 3 3 -20 -20 -20 -0 -20 -20 -5 -20 -20 -20 -20 -20 -20 -20 -20 -20 -20 -20 -15 -20 -20 -20 -20
-20 -20 -18 -6 -13 -20 -20 -20 -20 -20 -20 -20 -18 12 9 10 10 4 -16 -20 -19 -2 -2 -20 -20 -20 -20 -20 -20 -20 -20 -20 -20 -20 14 -16 10 1 -2 -1 -13 -15 -20 -20 -20 -20 -20
-20 9 -20 -12 -5 -20 -20 -20 -20 -20 -20 -20 -17 10 12 5 8 -2 -20 -20 -20 -20 -20 -20 -20 -20 -20 -20 -20 -12 -20 -20 -20 -20 -20 -20 -18 -20 -3 -18 -20 -20 -20 -20 -20 -20 -20
-20 -20 -3 -13 -20 -20 -20 -20 -20 -20 -20 -20 -19 12 10 8 12 -8 -20 -20 -20 -20 -20 -20 -20 -20 -20 -20 -20 -20 -20 -20 -20 8 -20 -19 -15 -20 -20 -20 -20 -20 -20 -20 -20 -20 -20
-20 -20 -20 -20 12 -0 -20 -20 -20 -20 -20 -20 2 12 5 13 11 -2 -20 -20 -20 -20 -20 -20 -20 -20 -20 -20 -20 -20 -20 -19 -20 -20 -4 9 -20 -20 -20 -20 -20 -20 -20 -19 -20 -20 -20
-20 -20 -6 -20 13 5 -20 -20 -20 -20 -20 -20 9 10 -5 8 -8 -20 -20 -20 -20 -20 -20 -20 -20 -20 -20 -20 -20 -20 -20 -6 -20 -20 -20 -20 -20 -20 -20 -20 -20 -20 -20 -20 -20 -20 -20
-20 -5 -19 -20 -10 11 -20 -20 -20 -20 -20 -20 12 8 10 -20 -20 -20 -20 -20 -20 -20 -20 -20 -20 -20 -20 -20 -20 -20 -20 -20 8 -20 -20 -20 -20 -20 -20 -20 -20 -20 -20 -20 -20 -20 -20
-20 -20 -5 -20 -20 9 -0 -20 -20 -20 -20 -20 10 -20 13 -8 -10 -20 -20 -20 -20 -15 -20 -20 -20 -20 -20 -20 -20 -20 -20 -20 -20 -19 -20 -20 -20 -20 -20 -20 -20 -20 -20 -20 -20 -20 -20
-19 -2 -14 -14 -11 -7 1 -20 -20 -20 -20 -20 3 -20 8 -20 -20 -20 -20 -20 -20 -20 -20 -20 -20 -20 -20 -20 -20 -20 -20 -20 -20 -20 -20 -20 -20 -20 -20 -20 -20 -20 -20 -20 -20 -20 -20
12 -20 -20 -8 1 2 -19 -20 -20 -20 -20 1 -20 -2 5 -20 -20 -3 -20 -20 -20 -20 -20 -20 -20 -20 -20 -20 -20 -20 -20 -20 -20 -20 -20 -20 -20 -20 -20 -20 -20 -20 -20 -20 -20 -20 -20
15 -20 -17 -16 -20 -17 10 -8 -20 -20 -20 9 -20 -3 -4 -20 -20 -17 -20 -20 -20 -20 -20 -20 -20 -20 -20 -20 -20 -20 -20 -20 -20 -20 -20 -20 -20 -20 -20 -20 -20 -20 -20 -20 -20 -20 -20
17 -15 18 0 -20 4 18 9 -20 -20 -3 -15 -16 0 -20 -20 -20 -20 -20 -20 -20 -20 -20 -20 -20 -20 -20 -20 -20 -20 -20 -20 -20 -20 -20 -20 -20 -20 -20 -20 -20 -20 -20 -20 -20 -20 -20
22 -19 10 14 -20 14 23 18 -20 -20 9 -20 -20 -20 -20 -20 -11 -20 -20 -20 -20 -20 -20 -20 -20 -20 -20 -20 -20 -20 -20 -20 -20 -20 -20 -20 -20 -20 -20 -20 -20 -20 -20 -20 -20 -20 -20
22 -12 -9 8 -20 13 26 19 -20 -20 7 -20 -20 -20 -20 -20 -20 -20 -20 -20 -20 -20 -20 -20 -20 -20 -20 -20 -20 -20 -20 -20 -20 -20 -20 -20 -20 -20 -20 -20 -20 -20 -20 -20 -20 -20 -20
20 -20 1 15 17 -10 34 19 -20 -10 -5 -20 -20 -5 -20 -20 -20 -20 -20 -20 -20 -20 -20 -20 -20 -20 -20 -20 -20 -20 -20 -20 -20 -20 -20 -20 -20 -20 -20 -20 -20 -20 -20 -20 -20 -20 -20
-20 -20 6 15 16 18 35 19 -20 -9 -20 -20 -20 8 -10 -20 -20 -20 -20 -20 -20 -20 -20 -20 -20 -20 -20 -20 -20 -20 -20 -20 -20 -20 -20 -20 -20 -20 -20 -20 -20 -20 -20 -20 -20 -20 -20
-20 -9 -7 18 21 36 27 18 -20 -20 -20 -20 -20 -1 -20 -20 -20 -20 -20 -20 -20 -20 -20 -20 -20 -20 -20 -20 -20 -20 -20 -20 -20 -20 -20 -20 -20 -20 -20 -20 -20 -20 -20 -20 -20 -20 -20
15 17 -20 8 12 38 25 -3 1 -13 -20 -20 -15 -20 -20 -20 -20 -20 -20 -20 -20 -20 -20 -20 -20 -20 -20 -20 -20 -20 -20 -20 -20 -20 -20 -20 -20 -20 -20 -20 -20 -20 -20 -20 -20 -20 -20
16 -20 -16 29 39 29 23 -20 2 15 -13 -20 -20 -20 -20 -20 -20 -20 -20 -20 -20 -20 -20 -20 -20 -20 -20 -20 -20 -20 -20 -20 -20 -20 -20 -20 -20 -20 -20 -20 -20 -20 -20 -20 -20 -20 -20
-2 -17 25 38 30 19 -1 -14 13 11 -20 -20 -20 -20 -20 -20 -20 -20 -20 -20 -20 -20 -20 -20 -20 -20 -20 -20 -20 -20 -20 -20 -20 -20 -20 -20 -20 -20 -20 -20 -20 -20 -20 -20 -20 -20 -20
23 25 37 24 13 -19 6 12 9 -16 -20 -20 -20 -20 -20 23 -20 -20 -20 -20 -20 -20 -20 -20 -20 -20 -20 -20 -20 -20 -20 -20 -20 -20 -20 -20 -20 -20 -13 -20 -20 -20 -20 -20 -20 -20 -20
31 39 23 23 6 4 7 9 -20 -20 -20 -20 -20 -20 -20 -20 -20 -20 -20 -20 -20 -20 -20 -20 -20 -20 -20 -20 -20 -20 -20 -20 -20 -20 -20 -20 -20 -20 -20 -17 -20 -20 -20 -20 -20 -20 -20
26 15 16 -4 -20 -9 -15 -16 -20 -20 -20 -20 -20 -20 -20 -20 -20 -20 -20 -20 -20 -20 -20 -20 -20 -20 -20 -8 23 -20 -20 -20 -20 -20 -13 -20 -19 13 -20 2 -20 -20 -20 -20 -20 -20 -20
26 17 -12 -16 -20 -20 -20 -20 -20 -20 -20 -20 -20 -20 -20 -20 -20 -20 -20 -20 -20 -20 -20 -20 -20 -20 -20 -9 13 -20 -5 -20 -20 -20 -20 -20 -20 -20 -20 10 -20 -20 -20 -6 -20 -20 -20
3 17 14 -11 -19 -20 -20 -20 -20 -20 -20 -16 -20 -20 -20 -20 -20 -20 -20 -20 -20 -20 -20 -20 -20 -20 -20 -19 3 -20 8 9 -20 -20 -20 -20 -20 -20 -20 -20 -20 -20 -20 -20 -20 -20 -20

GFSGBSN_prec_radar_009.txt.gz
Reflectivity
-20 -17 15 -16 -20 -20 -20 -20 -20 -20 -20 -20 -20 -20 0 9 3 -16 -20 -20 -20 2 6 -4 -20 -20 -20 -20 -20 -20 -20 -20 -20 -20 -20 -20 -20 -20 -20 -20 -20 -20 -20 -20 -20 -20 -17
-20 -19 -16 10 -17 -20 -20 -20 -20 -20 -20 -20 -20 -20 0 -15 6 -20 -8 -20 5 -7 1 -9 -20 -20 -20 -20 -20 -20 -20 -20 -20 -20 -20 -20 -20 -20 -20 -20 -6 -18 -20 -20 -20 -20 -20
-19 -20 -13 4 1 -20 -20 -20 -20 -20 -20 -20 -20 -20 2 -1 -19 -18 8 -20 -7 -20 -2 -20 -20 -20 -20 -20 -20 -20 -20 -20 -20 -5 -20 -20 -20 -20 -20 -20 -20 -20 -20 -2 -13 -20 -20
-20 -20 -20 -20 10 -19 -20 -20 -20 -20 -20 -20 -20 -20 -20 -20 -16 -2 -5 -17 -15 -20 -20 -20 -14 -20 -20 -20 -5 -20 -20 -20 -20 -20 -20 -20 -20 -20 -20 -20 -20 -20 -20 -16 1 -20 -20
-20 -20 -20 -20 -20 -3 -5 -20 -20 -20 -20 -20 -20 -20 -20 -20 -5 -19 -20 -17 -16 -20 -20 -20 -20 -20 -20 -20 -9 -20 -20 -6 -20 -20 -20 -20 -15 -15 -20 -11 -18 -20 7 -9 -12 -20 -20
-14 -20 -20 -20 -20 -20 6 -19 -20 -20 -20 -20 -20 -20 -20 -20 -18 -5 -20 -20 -20 -20 -20 -20 -20 -20 -20 -20 -20 -20 -20 -20 -20 -20 -20 -20 -15 -20 -20 -17 2 -6 2 -18 -20 -20 -20
-20 -20 -20 -20 -20 -20 -10 -20 -20 -20 -20 -20 -20 -20 -20 -20 -16 -0 -20 -20 -20 -20 -20 -20 -20 -20 -20 -20 -20 -20 -20 -20 -20 -20 2 -0 -18 -18 5 10 11 -14 -20 -20 -20 -20 -20
-10 -15 -20 -20 -20 -1 -7 -2 -20 -20 -20 -20 -20 -20 -20 -20 -2 -1 -20 -20 -20 -20 -20 -20 -20 -20 -20 -20 -20 -20 -20 -20 -20 3 14 -16 4 -1 6 -9 -20 -20 -1 -13 -20 -20 -20
8 -10 -14 -20 -20 -1 5 -18 -11 -20 -20 -20 -20 -20 -20 -20 5 -3 -20 -20 -20 -20 -20 -20 -20 -20 -20 -20 -20 -20 -20 -20 -16 6 -7 19 10 -11 -20 -20 -20 -20 -20 8 -10 -20 -19
8 7 -7 -14 -20 -20 -20 -14 10 -20 -20 -20 -20 -20 -20 -20 -20 -20 -20 -20 -20 -20 -20 -20 -20 -20 -20 -20 -20 -20 -20 -20 -20 2 -3 0 -17 -19 -20 6 -8 -18 -18 15 -20 -20 -20
-20 4 -5 -3 -20 -20 -20 -8 12 -17 -20 -20 -20 -20 -20 -20 -20 -20 -20 -20 -20 -20 -20 -20 -20 -20 -20 -20 -20 -20 -20 -20 -5 -13 -20 5 -20 -20 -13 10 -20 17 7 -20 -20 -20 5
-20 4 6 -13 -20 -17 -20 -20 12 9 -20 -20 -20 -16 -20 -19 -20 -20 -20 -20 -20 -20 -15 -20 -20 -20 -20 -20 -20 -20 -20 -20 -4 -20 -20 25 -20 -20 -20 -20 -20 -20 -20 -20 -20 -20 -14
12 -20 13 8 -20 -20 -20 -20 9 18 -20 -20 -20 -7 -11 -20 -20 -20 -20 -20 -4 -20 -20 -20 -20 -20 -20 -20 -20 -20 -20 -20 -20 -19 -20 -20 -20 -20 -20 -20 -20 -20 -20 -12 -9 -4 -20
5 15 7 9 -20 -20 -20 -20 -2 19 -20 -20 -20 10 -13 -20 -20 -20 -20 16 -20 -20 -20 -20 -20 -20 -20 -20 -20 -20 -20 -20 -20 0 10 -19 -20 -20 -20 -20 -20 -20 -20 -20 4 -18 -17
-2 15 18 -19 -20 -20 -20 -20 6 21 -11 -20 -16 -3 0 -19 -20 -20 -20 -20 -20 -20 -20 -20 -20 -20 -20 -20 -20 -20 -20 -20 -20 -20 21 -3 20 -6 -20 -20 -20 -20 -20 -20 -20 -20 -20
-10 16 13 14 -20 -20 -20 5 12 25 9 -20 -20 -8 -20 -20 -20 -20 -3 -20 -20 -20 -20 -20 -20 -20 -20 -20 -20 -20 -20 -20 -20 -20 -20 -20 -20 -20 -20 -20 -20 -20 -20 -20 -20 -20 -20
8 -18 16 15 -20 -20 -20 -0 11 26 12 -20 -7 -20 -20 -20 -20 -20 -20 -20 -20 -20 -20 -20 -20 -20 -20 -20 -20 -20 -20 -20 -20 -20 -20 -20 -20 -20 -20 -20 -20 -20 -20 -20 -20 -20 -20
13 16 15 13 9 -18 -2 13 13 28 1 -20 3 -20 1 -20 -20 -20 -20 -20 -20 -20 -20 -20 -20 -20 -20 -20 -20 -20 -20 -20 -20 -20 -20 -20 -20 -20 -20 -20 -20 -20 -20 -20 -20 -20 -20
16 17 27 20 14 17 13 15 26 26 -9 -20 9 -5 15 -15 9 11 -20 -20 -20 -20 -20 -20 -20 -20 -20 -20 -20 -20 -20 -20 -20 -20 -20 -20 -20 -20 -20 -20 -20 -20 -20 -20 -20 -20 -20
-11 -15 20 16 3 -14 -1 15 32 26 -10 -9 -20 -4 -10 -19 -20 -20 -20 -20 -20 -20 -20 -20 -20 -20 -20 -20 -20 -20 -20 -20 -20 -20 -20 -20 -20 -20 -20 -20 -20 -20 -20 -20 -20 -20 -20
28 36 17 -20 8 -11 6 20 31 26 -15 -20 -20 -20 -20 -11 3 -20 -20 -20 -20 -20 -20 -20 -20 -20 -20 -20 -20 -20 -20 -20 -20 -20 -20 -20 -20 -20 -20 -20 -20 -20 -20 -20 -20 -20 -20
22 19 14 19 -20 19 19 24 35 26 -20 -3 14 -20 -20 -20 -20 -20 -20 -20 -20 -20 -20 -20 -20 -20 -20 -20 -20 -20 -20 -20 -20 -20 -20 -20 -20 -20 -20 -20 -20 -20 -20 -20 -20 -20 -20
-18 -20 -2 13 -14 1 27 21 32 21 -20 7 -20 -20 -19 -20 -20 -20 -20 -20 -20 -20 -20 -20 -20 -20 -20 -20 -20 -20 -20 -20 -20 -20 -20 -20 -20 -20 -20 -20 -20 -20 -20 -20 -20 -20 -20
-20 -20 -1 10 -20 11 19 32 24 19 -20 -20 -20 18 6 15 -20 -20 -20 -20 -20 -20 -20 -20 -20 -20 -20 -20 -20 -20 -20 -20 -20 -20 -20 -20 -20 -20 -20 -20 -11 -20 -20 -20 -20 -20 -20
-20 11 -1 22 -5 -12 19 33 27 13 -20 -20 2 2 24 17 -20 -20 -20 -20 -20 -20 -20 -20 -20 -20 -20 -20 -20 -20 -20 -20 -20 -20 -20 -20 -20 -20 -15 -20 -20 -20 -20 -20 -20 -20 -20
-20 -17 1 -20 -9 19 38 26 26 -20 -20 17 21 -20 3 -20 -20 -20 -20 -20 -20 -20 -20 -20 -20 -20 -20 -20 -20 -20 -20 -20 -20 -20 -20 -20 -20 -20 -20 -20 -20 -20 -20 -20 -20 -20 -20
-7 17 -4 -2 20 32 23 22 11 -20 -20 25 -16 -5 -20 -20 -20 -20 -20 -20 -20 -20 -20 -20 -20 -20 -20 -9 12 -20 -20 -20 -20 -20 -20 -20 -20 -3 -20 -10 -20 -20 -20 -20 -20 -20 -20
3 -6 22 25 38 26 20 -1 -8 -20 0 21 -14 -14 -20 -20 -20 -20 -20 -20 -20 -20 -20 -20 -20 -20 -20 -20 -4 -20 -8 -20 -20 -20 -20 -20 -20 -20 -20 -20 -20 -20 -20 -20 -20 -20 -20
11 16 34 32 17 -1 2 8 -14 -20 -18 24 15 -20 -20 -20 -20 -20 -20 -20 -20 -20 -20 -20 -20 -20 -20 -20 -15 7 3 8 -20 -20 -20 -20 -20 -20 -20 -20 -20 -20 -20 -20 -20 -20 -20

GFSGBSN_prec_radar_012.txt.gz
Reflectivity
-20 -20 -16 -7 7 -18 -20 -20 -20 -20 -20 -20 -20 -20 -20 -20 -19 6 1 -11 -20 -19 5 -20 -20 -20 -20 -20 -20 -20 -20 -20 -20 -20 -20 -20 -20 -20 -20 -20 -20 -2 -20 -15 3 9 -20
-20 -20 -20 -20 -20 12 -15 -20 -20 -20 -20 -20 -20 -20 -20 -20 -12 -12 -6 -20 -20 -16 1 -20 -20 -20 -20 -20 -20 -20 -20 -20 -20 -20 -20 -20 -20 -20 -20 -20 -20 -1 -20 -20 -20 -20 13
-20 -20 -20 -20 -20 -4 8 -11 -20 -20 -20 -20 -20 -20 -20 -20 -20 -15 -20 -12 -20 -7 -20 -20 -20 -20 -20 -20 -20 -20 -20 -20 -20 -20 -20 -20 -20 -20 -20 -20 -9 -13 -20 -20 -20 -19 -8
-20 -20 -20 -20 -20 4 3 13 -3 -20 -20 -20 -20 -20 -20 -20 -20 -20 -20 -18 -20 -20 -20 -20 -20 -20 -20 -20 -20 -16 -19 -20 -20 -20 -20 -20 -20 -20 -20 -13 -20 -20 -20 -20 7 -20 -4
-20 -20 -20 -20 -20 -20 -20 -15 9 -20 -20 -20 -20 -20 -20 -20 -20 -20 -20 -20 -20 -20 -20 -20 -20 -20 -20 -20 -20 -20 -20 -20 -20 -20 -20 -20 -20 -20 -20 -20 -20 -20 -13 -20 4 -16 -20
-3 -5 2 -19 -20 -20 -20 -20 -20 -2 -20 -20 -20 -20 -20 -20 -20 -20 -20 -20 -20 -20 -20 -20 -20 -20 -20 -20 -20 -20 -20 -20 -20 -20 -20 -20 -20 -20 -5 -10 -7 -6 -1 -4 -20 -20 -20
-20 -7 -17 5 12 10 -3 -15 -20 -20 -2 -20 -20 -20 -20 -20 -20 -20 -20 -20 -20 -20 -20 -20 -20 -20 -20 -20 -20 -20 -20 -20 -20 -20 -20 -20 -20 -1 1 -0 4 -10 -20 -20 -20 -20 -20
-12 -1 -5 -19 -20 -20 -20 -20 -20 4 17 -20 -20 -20 -20 -20 -20 -17 -20 -20 -20 -20 -20 -20 -20 -20 -20 -20 -20 -20 -20 -20 -20 -20 -14 -20 -10 -11 2 -4 -18 -10 -8 4 -20 -20 -20
-20 -18 -9 3 -20 -20 -20 -20 -11 -8 8 -19 -20 -20 -20 -20 -20 -17 -20 -20 -20 -20 -20 -20 -20 -20 -20 -20 -20 -20 -20 -20 -20 -20 -2 8 -7 10 -19 -3 -20 -12 10 -5 -11 -20 -20
-2 3 -20 -3 0 -20 -12 -20 -19 -9 -10 9 -20 -20 -20 -20 -4 -20 -20 -20 -20 -20 -20 -20 -20 -20 -20 -20 -20 -20 -20 -18 -9 -11 -10 21 -11 -20 -20 -20 -20 15 -8 -20 -8 9 -19
-20 8 8 -20 7 -3 -20 -3 -20 8 -20 19 -20 -20 -20 -20 -20 -20 -20 -20 -20 -20 -20 -20 -20 -20 -20 -20 -20 -20 -20 -20 2 5 11 -5 -19 -15 -16 12 6 6 -20 -20 -20 -13 -20
-6 11 8 -17 -20 8 -20 -20 -20 -14 2 22 -20 -20 -20 3 -20 -20 -20 -20 17 -20 -20 -20 -20 -20 -20 -20 -20 -20 -20 -20 -20 -20 -20 10 1 24 15 -9 -8 -20 -20 -20 -20 -20 5
2 -9 13 7 -20 -20 -6 -20 -20 -17 -8 25 -18 -20 -17 -20 -20 -20 -20 -13 -6 -20 -20 -20 -20 -20 -20 -20 -20 -20 -20 -20 -20 -20 -14 -9 -20 -15 -20 -20 -20 -20 -20 -20 -14 -20 -20
8 6 6 9 -20 -20 6 -20 -20 -4 -18 23 -20 -20 -17 -20 -20 -20 -12 -18 -17 -20 -20 -20 -20 -20 -20 -20 -20 -20 -20 -20 -20 -20 -20 12 -20 -20 -20 -20 -7 -4 -20 -16 -2 -2 -8
-14 8 12 17 15 -17 -3 -20 -20 -17 4 16 -12 1 6 -19 -20 -8 23 20 -20 -20 -20 -20 -20 -20 -20 7 -20 -20 -20 -20 -20 -20 -20 -20 11 29 -20 -20 -20 -20 -20 -20 -1 1 -6
11 12 19 18 19 13 -13 -20 -20 -20 -2 17 1 7 -20 -20 -20 -12 15 -20 -20 -20 -20 -18 -20 -20 -20 -20 -20 -20 -20 -20 -12 -20 -10 29 20 9 -17 -20 -20 -20 -20 -20 -20 -20 -20
12 19 22 19 11 20 8 11 8 -20 12 14 1 -7 -20 -20 -20 5 5 -20 -20 -20 -20 -20 -20 -20 -20 -20 -20 -20 -20 0 -7 -19 -20 -5 23 9 -20 -20 -20 -20 -20 -20 -20 -20 -0
16 21 28 12 5 23 17 -17 -18 12 10 21 9 -17 -20 -20 -20 -20 -11 -20 -20 -20 -20 -20 -20 -20 -20 3 -20 -20 5 -20 -20 -20 -20 -20 -20 -20 -20 -20 -20 -20 -20 -20 -20 -20 -20
9 32 18 10 -3 21 15 -14 15 3 11 19 5 -6 2 -20 -20 -20 -20 -20 -20 -20 -20 -20 -20 -20 -20 -20 -20 -20 -19 4 -20 -20 -20 -20 -20 -20 -20 -20 -20 -20 -20 -20 -20 -20 -20
13 16 -1 10 24 28 15 9 14 18 14 27 -2 18 24 16 -20 -20 -20 -20 -20 -20 -20 -20 -20 -20 -20 -20 -20 -20 -20 -20 -20 -20 -20 -20 -20 -20 -20 -20 -15 -16 -20 -20 -20 -20 -20
16 -13 -12 -1 19 26 8 12 15 11 28 31 21 -2 7 1 -20 -20 -20 -20 -20 -20 -20 -20 -20 -20 -20 -20 -20 -20 -20 -20 -20 -20 -20 -20 -20 -20 -20 -14 -14 -20 -20 -20 -20 -20 -20
-18 12 -20 20 -20 28 13 18 19 12 33 33 9 -20 -7 6 -20 -20 -20 -20 -20 -20 -20 -20 -20 -20 -20 -20 -20 -20 -20 -20 -20 -20 -20 -20 -20 -20 -20 -20 -20 -20 -20 -20 -20 -20 -20
-19 -16 20 15 8 18 -11 4 20 15 36 30 -20 -20 -14 -19 -20 12 -20 -20 -20 -20 -20 -20 -20 -20 -20 -20 -20 -20 -20 4 -18 -20 -20 -20 -20 -20 -20 -20 -20 -20 -20 -20 -20 -20 -20
-20 8 23 19 13 16 -20 -20 11 18 33 8 -20 6 29 -11 -20 -20 -20 -20 -20 -20 8 -20 -20 8 -20 -20 -20 -20 -20 4 -7 -20 -20 -20 -20 -20 -20 -20 -20 -20 -20 -20 -20 -20 -20
7 17 31 31 15 12 4 -0 2 33 25 4 -19 1 26 29 -20 -20 -1 -20 -20 -20 10 -20 -20 -18 -20 -20 -20 -20 -20 -20 -20 -20 -14 -20 -20 -20 -20 -20 -20 -20 -20 -20 -20 -20 -20
-8 -19 18 16 14 23 5 -14 23 35 17 -15 -7 17 20 19 -18 -20 -8 0 -20 12 -10 20 -20 -20 -20 -20 -20 -20 -20 -20 -19 -20 -20 -20 -20 -20 -20 -20 -20 -20 -20 -20 -20 -20 -20
13 -20 -20 7 -0 -9 -13 11 31 32 -1 6 9 32 21 26 -20 -20 -17 -16 -20 7 -20 -20 -20 -20 -20 -9 12 -20 -20 -20 -20 -20 -20 -20 -20 -20 -20 -20 -20 -20 -20 -20 -20 -20 -20
-7 -20 -20 -20 6 15 14 20 29 24 -20 -7 -20 32 46 19 -20 -20 -20 -20 -20 -7 -20 -20 -12 -20 -20 -19 -20 -20 -7 -20 -20 -20 -20 -20 -20 -20 -20 -20 -20 -20 -20 -20 -20 -20 -20
-20 -20 -20 -20 15 -6 18 15 25 5 -20 15 15 29 36 34 -0 -20 -20 -20 -20 -13 4 -20 -20 -20 -20 -16 -19 -6 -19 7 -20 -20 -20 -20 -19 -20 -20 -20 -20 -20 -20 -20 -20 -20 -20

GFSGBSN_prec_radar_015.txt.gz
Reflectivity
-20 -20 -20 -20 -20 -19 -11 -1 -19 -20 -20 -20 -20 -20 -20 -20 -20 -20 -11 9 7 -16 -20 -20 -20 -20 -20 -20 -20 -20 -20 -20 -20 -20 -20 -20 -20 -20 -20 -20 -20 -20 -6 9 -20 -14 -0
-20 -20 -20 -20 -20 -20 -20 0 11 0 -20 -20 -20 -20 -20 -20 -20 -20 -20 -20 -20 -20 -20 -20 -20 -20 -20 -20 -20 -20 -20 -20 -20 -20 -20 -20 -20 -20 -20 -20 -20 -20 -3 -20 -20 -20 -20
4 -1 -20 -20 -20 -20 -20 6 13 11 -4 -20 -20 -20 -20 -20 -20 -20 -20 -20 -20 -20 -20 -20 -20 -20 -20 -20 -20 -20 -20 -20 -20 -20 -20 -20 -20 -20 -20 -20 -20 -20 -17 -20 -17 -20 -18
-20 -19 2 -18 -20 -20 -20 -20 0 5 12 -18 -20 -20 -20 -20 -20 -20 -20 -20 -20 -20 -20 -20 -20 -20 -20 -20 -20 -20 -20 -20 -20 -20 -20 -20 -20 -20 -20 -20 -20 -20 -6 -20 -20 -20 -3
-11 -19 8 13 8 -20 -20 -20 -10 4 2 7 -20 -20 -20 -20 -20 -20 -20 -20 -20 -20 -20 -20 -20 -20 -20 -20 -20 -20 -20 -20 -20 -20 -20 -20 -20 -20 -20 -20 -20 -20 -20 -14 -7 -14 -20
-20 -2 -20 -3 4 7 -20 -20 -20 -20 -14 -5 -18 -20 -20 -20 -20 -20 -20 -20 -20 -20 -20 -20 -20 -20 -20 -20 -20 -20 -20 -20 -20 -20 -20 -20 -20 -20 -20 -20 -20 -20 -12 -16 -3 -20 -20
-20 -20 -4 -14 -20 -15 15 -18 -20 -20 -20 -20 -12 -20 -20 -20 -20 -20 -20 -20 -20 -20 -20 -20 -20 -20 -20 -20 -20 -20 -20 -20 -20 -20 -20 -20 -20 -20 -20 -20 -0 -15 -7 -20 -20 -20 -20
-8 -1 -20 -15 0 -20 -20 15 15 13 8 4 6 -1 -4 -9 -20 -20 -20 -20 -20 -20 -20 -20 -20 -20 -20 -20 -20 -20 -20 -20 -20 -20 -20 -20 -20 -20 -20 3 -20 -20 -16 -4 -20 -20 -20
8 5 3 -20 3 -11 -20 -20 -9 -2 -3 -10 -19 -15 -20 -20 -20 -20 -20 -20 -20 -20 -20 -20 -20 -20 -20 -20 -20 -20 -20 -20 -20 -20 -9 -20 -20 -20 -8 -7 -20 -11 -20 -9 -20 -20 -20
16 2 -19 -5 -20 5 -1 -20 -11 -17 -12 -20 -20 -20 -19 -20 -20 -20 -20 -20 -20 -20 -20 -20 -20 -20 -20 -20 -20 -20 -20 -20 -20 -20 -20 -20 -20 -20 -14 -20 -20 -20 -20 -16 -20 -20 -20
-20 15 8 4 -6 2 2 -14 -20 -20 -20 -20 -20 -13 -20 -20 -20 -20 -20 -20 -20 -20 -20 -20 -20 -20 -20 -20 -20 -20 -20 -20 -20 -18 -20 -8 -16 4 -8 -20 -20 -20 -20 -20 -20 -20 -20
12 -20 -3 -20 10 8 -2 9 -20 -20 -20 -20 -17 2 -17 -14 -16 -20 -20 -20 -20 -20 -20 -20 -20 -20 -20 -20 -20 -20 -20 -20 -20 -20 -20 -20 -20 -20 -18 -20 -20 -20 -20 -20 -20 -20 -20
23 12 -12 -2 9 17 9 -4 7 -20 -13 -4 2 11 -11 -20 -20 -20 -20 -20 -17 -11 -20 -20 -20 -20 -20 -20 -20 -20 -20 -20 -20 -20 -20 -20 -20 25 2 -20 -20 -20 -20 -20 -20 -20 -20
7 -0 12 -18 8 15 16 -14 12 -20 -20 -11 14 17 -13 -15 -20 -20 -20 -14 6 -20 -20 -20 -20 -20 -20 -20 -20 -20 -20 -20 -20 -20 -20 -20 -6 -20 -18 -20 -20 -20 -20 -20 -20 -20 -20
4 30 21 -11 -20 9 16 12 2 8 -2 8 17 13 -19 -4 -20 -20 -5 16 -20 -20 -20 -20 -20 -20 -20 -20 -20 -20 -20 -20 -20 -20 -20 -20 -12 -20 -20 -20 -20 -20 -20 -20 -20 -20 -1
19 -5 18 16 -20 -9 15 14 -2 -7 -20 13 12 17 -12 -1 -20 -16 2 -15 -20 -20 -20 -20 -20 -20 -20 -20 -15 -20 -20 -20 -20 -20 -20 -20 -20 -20 5 -11 -20 -20 -20 -20 -20 -20 -20
13 18 18 12 -20 -10 7 18 -6 3 -20 16 14 6 -16 -18 -20 15 -0 -2 -19 -20 -20 -20 -20 -20 -20 -20 -18 -20 -20 -20 -20 -20 -20 -20 -20 5 12 11 -20 -20 -20 -20 -20 -20 -20
10 11 14 13 -20 -20 9 21 15 24 -3 19 15 12 -20 -20 4 2 -20 -20 -20 -20 -20 -20 -20 -20 -20 -19 -7 -20 -20 -20 -20 -17 3 -20 -20 -14 18 -20 -20 -20 -20 -20 -20 -20 -20
3 8 6 11 -20 -20 14 20 21 27 -14 10 15 21 -6 -20 -20 -20 -20 -20 -20 -20 -20 -20 -20 -20 -20 -7 21 -20 -20 2 11 -8 -20 -20 -20 -20 -20 10 -20 -19 -20 -20 -20 -20 -20
-6 6 -8 -3 -20 -13 25 16 23 25 -11 10 24 14 22 -5 -20 -20 -20 -20 -20 -20 -20 -20 -20 -20 -20 9 19 3 -20 -20 -20 -20 -20 -20 -20 -20 -20 -20 -20 -20 -20 -20 -20 -20 -20
8 5 -16 -20 -8 32 29 21 27 21 2 14 11 1 15 8 -2 -20 -20 -20 -20 -20 -20 -20 -20 -20 -20 -20 -13 10 -20 -20 -20 -20 -20 -20 -20 -20 -20 -20 -20 -20 -20 -20 -20 -20 -20
9 -1 -20 -20 30 22 13 15 12 18 17 25 24 -13 8 -1 1 -20 -20 -20 -20 -20 -20 -20 -20 -20 -20 -20 -20 -20 -20 -20 -20 -20 -20 -20 -20 -20 -20 -20 -20 -20 -20 -20 -20 -20 -20
13 9 9 -11 9 11 1 10 25 19 22 28 14 -15 -6 13 -20 -20 -20 -20 -20 -20 -20 -20 -20 -20 -20 -20 -20 -20 -20 -20 -20 -20 -20 -20 -20 -20 -20 -20 -20 -20 -20 -20 -20 -20 -20
13 12 9 12 6 12 0 2 20 18 22 22 3 -19 22 4 -13 -20 -20 -20 -20 -20 -20 -20 -20 -20 -20 -20 -20 -20 -20 -20 -20 7 -16 -20 -20 -20 -20 -20 -20 -20 -20 -20 -20 -20 -20
3 6 -20 -16 8 6 -19 13 1 13 20 12 -9 4 18 10 -20 -20 -20 -20 -20 -20 -20 -20 -20 -20 -20 9 -8 1 -14 -14 -20 -4 -2 -7 1 -20 -20 -20 -20 -20 -20 -20 -20 -20 -20
-17 -16 -20 7 18 2 -0 9 -1 -19 27 29 14 11 26 22 2 -20 -20 -20 -20 -20 -20 -20 -4 21 -20 -20 -20 -20 -20 -20 -20 -20 -20 -20 -20 -20 -20 -20 -20 -20 -20 -20 -20 -20 -20
11 -20 -10 -14 22 21 19 18 4 -17 33 27 29 28 16 26 -16 -8 -20 -20 -20 -20 -20 -19 27 -15 -20 -20 -20 -20 -20 -20 -20 -20 -20 -20 -20 -20 -20 -20 -20 -20 -20 -20 -20 -20 -20
-18 23 36 29 31 18 24 18 10 7 21 28 26 18 26 16 -20 0 -20 -20 -20 -20 -20 -17 42 9 -20 8 -20 -20 -20 -20 -20 -20 -20 -20 -20 -20 -20 -20 -20 -20 -20 -20 -20 -20 -20
-20 -13 17 23 23 19 10 -19 -2 9 21 23 -7 3 16 27 21 -2 -20 -20 -17 -20 -20 -20 23 -20 -20 -20 -20 -20 -20 -2 -20 -20 -20 -20 -20 -20 -20 -20 -20 -20 -20 -20 -20 -20 -20

GFSGBSN_prec_radar_018.txt.gz
Reflectivity
-20 -20 -20 -20 -20 -20 -20 -20 -20 -10 -11 -20 -20 -20 -20 -20 -20 -20 -20 -20 -20 -20 -20 -20 -20 -20 -20 -20 -20 -20 -20 -20 -20 -20 -20 -20 -20 -20 -20 -20 -20 -20 -20 -14 -20 -20 -20
-20 -20 -20 -20 -20 -20 -20 -20 -20 -20 6 4 -20 -20 -20 -20 -20 -20 -20 -20 -20 -20 -20 -4 -20 -20 -20 -20 -20 -20 -20 -20 -20 -20 -20 -20 -20 -20 -20 -20 -20 -20 -20 -20 -20 -20 -20
-3 -20 -20 -20 -20 -20 -20 -20 -20 -20 -7 -20 -20 -20 -20 -20 -20 -20 -20 -20 -20 -20 -20 -20 -20 -20 -20 -20 -20 -20 -20 -20 -20 -20 -20 -20 -20 -20 -20 -20 -20 -20 -20 -20 -20 -20 -20
-20 -3 -20 -20 -20 -8 -15 -20 -20 -20 -20 -20 -18 -19 -20 -20 -20 -20 -20 -20 -20 -20 -20 -20 -20 -20 -20 -20 -20 -20 -20 -20 -20 -20 -20 -20 -20 -20 -20 -20 -18 -20 -20 -11 -20 -18 -20
-19 -19 0 -17 -20 -20 2 5 -16 -20 -20 -7 10 1 -20 -20 -20 -20 -20 -20 -20 -20 -20 -20 -20 -20 -20 -20 -20 -20 -20 -20 -20 -20 -20 -20 -20 -20 -20 -20 -20 -20 -20 -20 -20 -15 -20
1 -20 -20 -0 5 -20 -20 -20 5 5 -20 -20 -16 -16 -20 -20 -20 -20 -20 -20 -20 -20 -20 -20 -20 -20 -20 -20 -20 -20 -20 -20 -20 -20 -20 -20 -20 -20 -20 -20 -20 -20 -15 2 7 -15 -20
13 11 0 -15 1 1 -20 -20 -20 9 12 -10 -8 -7 -20 -20 -20 -20 -20 -20 -20 -20 -20 -20 -20 -20 -20 -20 -20 -20 -20 -20 -20 -20 -20 -20 -20 -20 -20 -20 -20 -20 -20 -13 -20 -20 -20
12 6 -6 10 2 6 -5 -20 -20 -20 3 -4 -1 -9 5 -8 -20 -18 -6 -20 -20 -20 -20 -20 -20 -20 -20 -20 -20 -20 -20 -20 -20 -20 -20 -20 -20 -20 -20 -20 -17 -20 -20 -20 -20 -20 -20
7 12 14 6 6 -0 -11 5 -20 -1 -20 -1 -18 9 17 10 -9 9 4 -20 -20 -20 -20 -20 -20 -20 -20 -20 -20 -20 -20 -20 -20 -20 -20 -20 -20 -20 -20 -2 -20 -20 -20 -20 -20 -20 -20
6 -3 10 14 11 11 8 9 -20 -20 -20 -20 -20 1 1 5 3 5 -19 -20 -20 -20 -20 -20 -20 -20 -20 -20 -20 -20 -20 -20 -20 -20 -20 -20 -20 -20 -16 -2 -20 -20 -20 -20 -20 -20 -20
23 18 3 11 13 12 6 -15 8 -19 -20 -20 -3 2 13 4 11 11 -20 -20 -20 -20 -20 -20 -20 -20 -20 -20 -20 -20 -20 -20 -20 -20 -20 -20 -20 -20 -14 -18 -20 -20 -20 -20 -20 -20 -20
19 19 20 -0 14 12 8 5 6 6 4 -20 11 17 -7 11 16 14 -16 -18 -20 -20 -20 -20 -20 -20 -20 -20 -20 -20 -20 -20 -20 -20 -20 -20 -20 -20 -20 -20 -20 -20 -20 -20 -20 -20 -20
4 3 16 20 7 -8 4 15 9 5 6 -18 0 18 3 -11 6 -2 -20 14 -2 -20 -20 -20 -20 -20 -20 -20 -20 -20 -20 -20 -20 -20 -20 -20 -20 -20 -20 -20 -20 -20 -20 -20 -20 -20 -20
-20 16 17 14 16 -7 -20 11 15 15 10 -16 3 -1 15 -9 4 -14 -20 -4 1 -20 -20 -20 -20 -20 -20 -20 -20 -20 -20 -20 -20 -20 -20 -20 -20 -20 -20 -20 -20 -20 -20 -20 -20 -20 -20
-20 -4 28 10 19 15 -16 4 11 15 7 11 5 15 18 -8 -14 -14 -1 4 -20 -20 -20 -20 -20 -20 -20 -20 -20 -20 -20 -20 -20 -20 -20 -20 -20 -20 -20 -20 -20 -20 -20 -20 -20 -20 -20
-20 -7 23 22 19 21 7 -20 2 12 12 14 15 14 9 11 3 -16 -1 -20 -20 -20 -20 -20 -20 -20 -20 -20 -20 -20 -20 -20 -20 -20 -20 -20 -19 -20 -20 -20 -20 -20 -20 -20 -20 -20 -20
-20 -10 -8 9 14 16 19 -17 -20 16 13 13 16 19 -4 9 19 -1 10 -5 -20 -12 -20 -20 -20 -20 -20 -20 -20 -20 -20 -20 -20 -20 -20 -20 -20 -17 -20 -20 -1 -20 -20 -20 -20 -20 -20
0 -7 -6 -20 16 -20 25 11 -20 17 12 18 20 17 11 -20 24 -6 -4 -20 -20 -4 -20 -20 -20 -20 -20 -20 -20 -20 -20 -20 -20 -20 -20 -20 -20 -20 -20 -20 -8 7 -20 -20 -20 -20 -20
1 3 1 -12 5 -16 32 -15 -15 1 -4 10 20 10 20 -15 14 -17 -15 1 -19 -1 -20 -20 -20 -20 -20 -20 -20 -20 -20 -20 -20 -20 -20 -20 -20 -20 -20 -20 -20 -20 -20 -20 -20 -20 -20
20 3 2 -6 17 21 22 -20 -20 6 12 18 20 18 27 14 -20 -20 -13 -13 -19 -20 -20 -20 -20 -20 -20 -20 -20 -20 -20 -20 -20 -12 -20 -5 -20 -20 -20 -20 -20 -20 -20 -20 -20 -20 -20
22 -1 2 10 18 16 15 -7 -20 5 12 18 19 13 -3 2 -20 -20 -20 -20 -20 -20 -20 -20 -20 -20 -20 -20 -20 -20 -20 -20 -20 -20 -20 -1 -20 -20 -20 -20 -20 -20 -20 -20 -20 -20 -20
20 6 8 9 -20 3 -20 -20 -20 21 16 22 20 16 11 -20 -17 -20 -20 -20 -20 -20 -20 -20 -20 -20 -20 -20 -20 -20 -20 -20 -20 -20 -20 -20 -20 -20 -20 -20 -20 -20 -20 -20 -20 -20 -20
18 7 7 6 -20 6 -20 -20 -3 30 31 26 21 -18 15 -20 -15 -16 -20 -20 -20 -20 -20 -20 -20 -20 -20 -20 -20 -20 -20 -16 -20 -20 -20 -20 -20 -20 -20 -20 -20 -20 -20 -20 -20 -20 -20
10 7 7 6 -20 -20 -20 -20 -19 30 35 20 22 -8 19 -14 -2 -20 -20 -20 -20 -20 -20 -20 -20 -20 -20 -20 -20 -20 -20 -20 -4 -20 -20 -20 -20 -20 -20 -20 -20 -20 -20 -20 -20 -20 -20
6 5 4 6 -20 -19 -20 -20 13 27 33 16 20 19 21 11 6 -20 -20 -20 -20 -20 -20 -20 -20 -20 -20 -20 -20 -20 16 12 -14 -20 -20 -20 2 -20 -20 -20 -20 -20 -20 -20 -20 -20 -20
-20 -6 2 5 -20 -20 -20 -1 10 9 29 -7 18 22 21 22 -20 6 -20 -20 -20 -20 -20 -20 -20 -20 -20 -16 -20 -20 -20 -20 -20 -20 -20 -20 21 22 -20 -20 -20 -20 -20 -20 -20 -20 -20
-2 1 -1 8 0 -20 4 -7 -20 -19 17 -14 30 32 21 4 16 -20 -6 -20 -20 -20 -20 -20 -20 -20 -20 -20 -20 -20 -20 -20 -20 -20 -20 -20 -20 -20 -20 -20 -20 -20 -20 -20 -20 -20 -20
10 14 8 2 -13 -7 -17 -14 -20 -18 -8 15 19 29 33 40 8 14 -20 -20 -20 -20 -20 -20 19 22 22 5 -20 -20 -20 -20 -20 -20 -20 -20 -20 -20 -20 -20 -20 -20 -20 -20 -20 -20 -20
13 -20 -20 -20 11 1 -20 -19 -18 -18 17 11 22 22 22 31 10 19 -20 -20 -20 -20 -20 -20 5 -20 -16 -20 -20 -20 -20 -20 -20 -20 -20 -20 -20 -20 -20 -20 -20 -20 -20 -20 -20 -20 -20

GFSGBSN_prec_radar_021.txt.gz
Reflectivity
-19 -20 -20 -20 -20 -20 -20 -20 -20 -8 2 -20 -16 -20 -20 -20 -20 -20 -20 -20 -20 -20 -20 -20 -20 -20 -20 -20 -20 -20 -20 -20 -20 -20 -20 -20 -20 -20 -20 -20 -20 -20 -20 -20 -20 -20 -10
15 6 -13 -20 -20 -20 -20 -20 -20 -20 -17 -20 -20 -20 -20 -20 -20 -20 -20 -20 -20 -20 -20 -20 -20 -20 -20 -20 -20 -20 -20 -20 -20 -20 -20 -20 -20 -20 -20 -20 -20 -20 -20 -20 -20 -16 -20
3 6 9 4 3 -20 -20 -20 -20 -20 -20 -20 -20 -20 -20 -20 -20 -20 -20 -20 -20 -20 -20 -20 -20 -20 -20 -20 -20 -20 -20 -20 -20 -20 -20 -20 -20 -20 -20 -20 -20 -20 -20 -20 -20 -20 11
7 3 -3 4 3 7 -20 -20 -20 -20 -20 -20 -20 -20 -20 -20 -20 -20 -20 -20 -20 -20 -20 -20 -20 -20 -20 -20 -20 -20 -20 -20 -20 -20 -20 -20 -20 -20 -20 -20 -20 -20 -20 -20 -20 -20 -20
14 9 7 -11 -2 -1 4 -9 -20 -20 -20 -20 -20 -20 -20 -20 -20 -20 -20 -20 -20 -20 -20 -20 -20 -20 -20 -20 -20 -20 -20 -20 -20 -20 -20 -20 -20 -20 -20 -20 -20 -20 -20 -20 -20 -20 -15
8 15 13 9 -20 2 1 -2 -20 -20 -20 -20 -20 -20 -7 -20 -20 -20 -20 -20 -20 -20 -20 -20 -20 -20 -20 -20 -20 -20 -20 -20 -20 -20 -20 -20 -20 -20 -20 -20 -20 -20 -20 -20 -14 -19 -20
10 12 9 -5 9 -20 -20 -20 -20 -20 -20 -20 2 -20 -5 -2 -20 -20 -20 -20 -20 -20 -20 -20 -20 -20 -20 -20 -20 -20 -20 -20 -20 -20 -20 -20 -20 -20 -20 -20 -20 -20 -20 -20 -20 -19 -20
22 12 14 13 11 9 1 5 4 7 -20 -20 -19 -19 -10 4 -15 -19 -20 -20 -20 -19 -6 -20 -20 -20 -20 -20 -20 -20 -20 -20 -20 -20 -20 -20 -20 -20 -20 -20 -20 -20 -20 -20 -20 -20 -20
-20 4 17 14 16 12 11 2 11 6 -20 -20 -20 -20 -6 7 25 8 -7 -20 -8 -20 -20 -20 -20 -20 -20 -20 -20 -20 -20 -20 -20 -20 -20 -20 -20 -20 -20 -20 -20 -19 -20 -20 -20 -20 -20
-20 -3 -7 12 10 17 14 5 3 4 4 -20 -20 -20 -4 13 -15 -12 13 -6 1 16 -2 -20 -20 -20 -20 -20 -20 -20 -20 -20 -20 -20 -20 -20 -20 -20 -20 -20 -14 -20 -20 -20 -20 -20 -20
-20 -20 4 -14 16 4 12 14 12 11 5 -4 -20 -20 14 6 13 13 -18 -20 -17 -8 -20 -20 -20 -20 -20 -20 -20 -20 -20 -20 -20 -20 -20 -20 -20 -20 -20 -20 -20 -20 -20 -20 -20 -20 -20
-20 -20 3 -3 13 0 6 14 15 10 16 6 -20 -12 21 10 -11 3 -15 -7 -7 -15 -20 -20 -20 -20 -20 -20 -20 -20 -20 -20 -20 -20 -20 -20 -20 -20 -20 -11 -20 -20 -20 -20 -20 -20 -20
-20 -20 -20 7 -5 21 2 10 13 14 12 12 -8 -18 20 -19 -20 -20 -20 16 16 -20 -20 -20 -20 -20 -20 -20 -20 -20 -20 -20 -20 -20 -20 -20 -20 -20 -20 -20 -20 -20 -20 -20 -20 -20 -20
-20 -20 -20 -18 11 21 18 8 9 10 13 14 7 0 10 6 -20 -20 -12 3 5 -17 -20 -20 -20 -20 -20 -20 -20 -20 -20 -20 -20 -20 -20 -20 -20 -20 -20 -20 -20 -20 -20 -20 -20 -20 -20
8 -20 -20 -20 -20 12 21 11 3 0 14 11 11 5 17 -8 -20 -20 15 15 -20 6 -19 -20 -20 -20 -20 -20 -20 -20 -20 -20 -20 -20 -20 -20 -20 -20 -20 -20 -20 -20 -20 -20 -20 -20 -20
18 9 -20 -20 -20 -13 22 20 14 -13 14 16 13 2 7 3 -14 -20 14 -20 -20 -19 -13 -20 -20 -20 -20 -20 -20 -20 -20 -20 -20 -20 -20 -20 -20 -20 -20 -20 -20 -15 -20 -20 -20 -20 -20
19 12 -5 -20 -20 -20 25 19 20 1 12 13 13 13 -12 8 6 9 -11 -3 -20 -17 -8 -20 -20 -20 -20 -20 -20 -20 -20 -20 -20 -20 -20 -20 -20 -20 -20 -20 -20 -20 -20 -20 -20 -20 -20
21 28 15 -20 -20 -19 36 19 15 21 8 19 10 12 12 -20 21 6 -20 -4 -20 2 -18 -20 -20 -20 -20 -20 -20 -20 -20 -20 -20 -20 -20 -20 -20 -20 -20 -20 -20 -20 -20 -20 -20 -20 -20
26 26 25 -14 -4 3 27 19 22 8 20 6 13 17 15 -20 11 -3 -20 -20 -20 2 -20 -20 -20 -20 -20 -20 -20 -20 -20 -20 -20 -20 -20 -20 -20 -20 -20 -20 -20 -20 -20 -20 -20 -20 -20
24 28 25 20 7 -2 13 35 3 2 20 11 15 13 23 21 -20 -19 -20 -20 -20 -4 -20 -20 -20 -20 -20 -20 -20 -20 -20 -20 -20 -20 -20 -20 -20 -20 -20 -20 -20 -20 -20 -20 -20 -20 -20
31 31 24 28 4 6 -5 21 14 -15 9 22 3 2 13 7 0 -10 -20 -20 -20 4 -10 -20 -20 -20 -20 -20 -20 -20 -20 -20 -20 -20 -20 -20 -20 -20 -20 -20 -20 -20 -20 -20 -20 -20 -20
35 25 25 27 17 13 12 -14 -20 -11 12 29 19 15 9 -20 -7 -2 -1 -20 -20 4 1 -20 -20 -20 -20 -20 -20 -20 -20 -20 -20 -20 -20 -20 -20 -20 -20 -20 -20 -20 -20 -20 -20 -20 -20
35 26 26 29 22 13 8 15 5 15 23 35 13 -17 10 -20 -17 -7 -20 -20 -15 13 -10 -20 -20 -20 -20 -20 -20 -20 -20 -20 -20 -17 -20 -20 -20 -20 -20 -20 -20 -20 -20 -20 -20 -20 -20
32 30 26 29 21 13 18 -14 14 17 -6 27 19 -14 15 -8 -19 -20 -20 -20 -19 6 7 -20 -20 -20 -20 -20 -20 -20 -20 -20 -20 -20 -20 -20 -20 -20 -20 -20 -20 -20 -20 -20 -20 -20 -20
33 30 27 27 18 9 7 9 -19 -17 -17 13 8 11 28 15 -20 -7 -20 -20 -20 -19 -19 -20 -20 -20 -20 -20 -20 -20 -20 -20 -20 -20 -20 -20 -20 -20 -20 -20 -20 -20 -20 -20 -20 -20 -20
31 24 25 19 10 6 -20 -20 -20 -8 -20 19 19 11 29 28 -10 -8 -20 -20 -20 -20 -20 -20 -20 -5 -20 -20 -20 -20 -20 -20 -20 -20 -20 -20 -20 -20 -20 -20 -20 -20 -20 -20 -20 -20 -20
29 33 26 12 9 -5 -20 -20 -20 -0 -18 23 30 23 27 29 -1 10 4 -20 -20 -20 -20 -20 -20 1 -20 -2 -20 -11 -20 -20 -20 -20 -20 -20 -20 -20 -20 -20 -20 -20 -20 -20 -20 -20 -20
32 24 16 11 9 -15 -20 -20 -19 6 -4 30 23 25 6 7 5 8 20 -20 -20 -20 -20 -20 -19 -20 -20 -20 -4 -20 -20 -20 -20 -20 -20 -20 -20 -20 -20 -20 -20 -20 -20 -20 -20 -20 -20
9 9 5 -14 5 8 8 -11 -15 14 15 28 12 28 18 27 -7 -20 -12 -20 -20 -20 -20 -20 -20 -20 -20 8 0 -20 -20 -20 -20 -20 -20 -20 -20 -20 -20 -20 -20 -20 -20 -20 -20 -20 -20

GFSGBSN_prec_radar_024.txt.gz
Reflectivity
15 16 9 6 2 1 -10 -18 -20 -20 -3 6 9 4 1 -20 -20 -20 -20 -20 -20 -20 -20 -20 -20 -20 -20 -20 -20 -20 -20 -20 -20 -20 -20 -20 -20 -20 -20 -20 -20 -20 -20 -20 -20 -20 -20
14 17 14 12 5 2 -20 -20 -20 -20 -20 -20 -17 10 -20 -20 -20 -20 -20 -20 -20 -20 -20 -20 -20 -20 -20 -20 -20 -20 -20 -20 -20 -20 -20 -20 -20 -20 -20 -20 -20 -20 -20 -20 -20 6 -20
17 15 13 2 4 13 7 -4 -20 -20 -20 -20 -20 7 9 -20 -20 -20 -20 -20 -20 -20 -20 -20 -20 -20 -4 -20 -20 -20 -20 -20 -20 -20 -20 -20 -20 -20 -20 -20 -20 -20 -20 -20 -20 -20 -20
13 13 9 13 11 1 -16 11 1 -20 -20 -20 -20 -20 4 -16 -20 -20 -20 -20 -20 -20 -20 -20 -20 -20 6 -20 -20 -20 -20 -20 -20 -20 -20 -20 -20 -20 -20 -20 -20 -20 -20 -20 -20 -20 -20
14 7 13 14 13 11 4 3 2 -14 -20 -20 -20 -20 -20 4 -8 -20 -20 -20 -20 -20 -20 -20 -20 -20 -20 -20 -20 -20 -20 -20 -20 -20 -20 -20 -20 -20 -20 -20 -20 -20 -20 -20 -13 -20 -20
-12 17 11 14 15 15 11 -1 14 3 -20 -20 -20 -20 -20 9 10 -20 -20 -20 -20 -20 -20 -20 -20 -20 -20 -20 -20 -20 -20 -20 -20 -20 -20 -20 -20 -20 -20 -20 -20 -20 -20 -20 -20 -20 -20
-17 6 14 9 10 9 14 8 8 9 4 -20 -20 -20 -20 -20 21 5 -20 -20 -20 -20 -20 -20 -20 -20 -20 -20 -20 -20 -20 -20 -20 -20 -20 -20 -20 -20 -20 -20 -20 -20 -20 -20 -20 -20 -20
-13 -14 9 11 16 3 10 14 8 6 11 5 -5 -20 -20 -20 18 -0 -12 -20 -20 -20 -20 -20 -20 -20 -20 -20 -20 -20 -20 -20 -20 -20 -20 -20 -20 -20 -20 -20 -20 -20 -20 -20 -20 -20 -20
-20 -9 -20 8 7 13 8 15 15 11 4 6 -20 -20 -20 -20 13 -2 -20 -20 -19 -20 -20 -20 -20 -20 -20 -20 -20 -20 -20 -20 -20 -20 -20 -20 -20 -20 -20 -20 -20 -20 -20 -20 -20 -20 -20
-20 -20 -20 -20 7 5 13 -0 11 12 11 10 -20 -20 -20 4 14 -20 -20 -20 7 10 -20 -17 -9 -14 -1 -20 -20 -20 -20 -20 -20 -20 -20 -20 -20 -20 -20 -20 -20 -19 -20 -20 -20 -20 -20
-20 -20 -20 -20 -20 7 10 9 4 -17 10 8 -5 -20 -20 17 -20 -20 -20 -20 -1 9 -18 -20 -19 -5 -12 -20 -20 -20 -20 -20 -20 -20 -20 -20 -20 -20 -20 -20 -20 -19 -20 -20 -20 -20 -20
-6 -15 -20 -20 -20 -20 11 19 4 -11 3 12 4 -20 -20 10 -10 -20 -20 -20 -2 -14 -20 -20 -20 -20 -20 -20 -20 -20 -20 -20 -20 -20 -20 -20 -20 -20 -20 -20 -20 -20 -20 -20 -20 -20 -20
7 3 -5 -20 -20 -20 -18 19 22 9 0 12 14 -6 -9 -6 0 -20 -20 -20 -0 -4 -18 -20 -20 -20 -20 -20 -20 -20 -20 -20 -20 -20 -20 -20 -20 -20 -20 -20 -20 -20 -20 -20 -20 -20 -20
14 16 10 -20 -20 -20 -20 -6 24 18 13 16 16 11 -20 -16 6 -17 -20 16 -14 -20 -4 -20 -20 -20 -20 -20 -20 -20 -20 -20 -20 -20 -20 -20 -20 -20 -20 -20 -20 -20 -20 -20 -20 -20 -20
13 16 15 8 -15 -20 -20 -20 4 29 13 21 17 5 -8 -20 -3 -6 7 8 5 -20 -4 3 -20 -20 -20 -20 -20 -20 -20 -20 -20 -20 -20 -20 -20 -20 -20 -20 -20 -20 -20 -20 -20 -20 -20
15 14 16 15 16 -3 -20 -20 -12 34 16 18 7 4 -13 -20 -2 4 17 -9 -20 -20 -20 18 -17 -7 -18 -20 -20 -20 -20 -20 -20 -20 -20 -20 -20 -20 -20 -20 -20 -20 -20 -20 -20 -20 -20
26 16 18 20 16 17 -18 -20 -12 31 17 19 18 11 -20 20 5 18 7 4 -18 -20 -20 12 -20 -3 -17 -20 -20 -20 -20 -20 -20 -20 -20 -20 -20 -20 -20 -20 -20 -20 -20 -20 -20 -20 -20
32 26 16 20 25 17 6 -20 -18 19 34 13 24 -3 -10 12 11 4 -2 -20 -20 -11 12 3 -20 -20 -20 -20 -20 -20 -20 -20 -20 -20 -20 -20 -20 -20 -20 -20 -20 -20 -20 -20 -20 -20 -20
20 16 21 22 23 21 17 -20 -20 4 37 1 27 5 29 -20 4 -7 -3 -2 -20 4 18 -18 -20 -20 -19 -20 -20 -20 -20 -20 -20 -20 -20 -20 -20 -20 -20 -20 -20 -20 -20 -20 -20 -20 -20
-20 11 4 26 26 27 20 -20 -3 4 36 11 30 14 24 17 -20 -20 -11 -9 -20 -1 5 -5 -20 -20 -20 -20 -20 -20 -20 -20 -20 -20 -20 -20 -20 -20 -20 -20 -20 -20 -20 -20 -20 -20 -20
6 9 -4 2 33 22 30 -7 6 23 25 -8 30 20 12 14 -15 -20 -20 -20 -20 -7 1 -17 -20 -20 -20 -20 -20 -20 -20 -20 -20 -20 -20 -20 -20 -20 -20 -20 -20 -20 -20 -20 -20 -20 -20
12 6 -1 -16 30 23 32 12 23 27 31 8 30 3 13 -20 -20 -1 4 -3 -20 -10 7 -16 -20 -20 -20 -20 -20 -20 -20 -20 -20 -20 -20 -20 -20 -20 -20 -20 -20 -20 -20 -20 -20 -20 -20
12 9 12 -10 31 25 30 22 9 30 20 6 27 -16 1 -20 -20 -2 -20 -20 -18 12 2 -18 -20 -13 -20 -20 -20 -20 -20 -20 -20 -20 -20 -20 -20 -20 -20 -16 -20 -20 -20 -20 -20 -20 -20
18 14 12 3 36 27 33 21 32 24 25 6 -4 -11 3 7 -0 -20 -20 -6 -8 14 8 -20 -3 -14 -20 -20 -18 -20 -20 -20 -20 -20 -20 -20 -20 -20 -20 -20 -20 -20 -20 -20 -20 -20 -20
21 17 19 19 36 28 32 14 9 13 -18 -20 -20 -8 26 15 -16 -2 -18 -20 -20 14 16 13 10 -4 -17 0 15 -20 -20 -20 -20 -20 -20 -20 -20 -20 -20 -20 -20 -20 -20 -20 -20 -20 -20
14 16 6 35 26 32 28 12 -18 24 8 -20 -20 -20 30 29 -18 3 -12 -20 -20 -1 11 4 12 9 10 20 -1 -20 -17 -20 -20 -20 -20 -20 -20 -20 -20 -20 -20 -20 -20 -20 -20 -20 -20
7 -4 14 29 30 32 20 10 8 -11 -7 -20 -20 -16 26 30 18 -1 -2 -20 -20 -20 -6 -7 7 9 7 -20 -20 -20 -20 9 -20 -20 -20 -20 -20 -20 -20 -20 -20 -20 -20 -20 -20 -20 -20
5 20 32 31 30 23 8 8 4 9 15 -12 -20 -13 26 31 19 24 10 -20 -20 -20 -20 -20 -1 -1 -19 -20 -20 -20 -20 -20 -20 -20 -20 -20 -20 -20 -20 -20 -20 -20 -20 -20 -20 -20 -20
27 31 29 29 30 7 8 5 -8 12 17 -13 -20 11 19 32 8 31 17 -20 -20 -20 -20 -20 -20 -20 -20 -20 -20 -20 9 -13 -20 -20 -20 -20 -20 -20 -20 -20 -20 -20 -20 -20 -20 -20 -20

GFSGBSN_prec_radar_030.txt.gz
Reflectivity
15 11 13 7 11 10 3 8 5 2 -20 -20 -20 -20 -20 -20 -20 -13 -1 -20 -20 -20 -20 -20 -20 -20 -20 -20 -20 -20 -20 -20 -20 -20 -20 -20 -20 -20 -20 -20 -20 -20 -20 -20 -17 -20 -13
-18 -2 11 9 11 8 11 8 8 11 8 -1 -20 -20 -20 -20 -20 -19 -20 -20 -20 -20 -20 -20 -20 -20 -20 -20 -20 -20 -20 -20 -20 -20 -20 -20 -20 -20 -20 -20 -20 -20 -20 -20 -13 -8 -20
12 5 -9 18 8 11 9 11 5 9 5 10 -2 -20 -20 -20 -20 -20 -20 -20 -20 -20 -20 -20 -20 -20 -20 -20 -20 -20 -20 -20 -20 -20 -20 -20 -20 -20 -20 -20 -20 -20 -20 -20 -20 -20 -20
-1 6 1 -17 12 5 6 11 4 8 7 7 12 -9 -20 -20 -20 -20 -19 -20 -20 -20 -20 -20 -20 -20 -20 -20 -20 -20 -20 -20 -20 -20 -20 -20 -20 -20 -20 -20 -20 -20 -20 -19 -20 -20 -20
3 -4 -3 12 8 -4 13 5 9 12 3 4 7 12 -20 -20 -20 -20 -20 -20 -20 -20 -20 -20 -20 -20 -20 -20 -20 -20 -20 -20 -20 -20 -20 -20 -20 -20 -20 -20 -20 -20 8 -20 -14 -20 -20
4 -16 -20 6 -20 8 -20 13 -5 8 12 6 0 6 -2 -20 -20 -20 -20 -20 -20 -20 -20 -20 -20 -20 -20 -20 -20 -20 -20 -20 -20 -20 -20 -20 -20 -20 -20 -20 -20 -20 -20 -20 12 -19 -20
-0 7 9 -20 -20 -20 -20 1 7 8 9 10 0 -14 2 -18 -20 -20 -20 -20 -20 -20 -20 -20 -20 -20 -20 -20 -20 -20 -20 -20 -20 -20 -20 -20 -20 -20 -20 -20 -20 -20 -20 -20 -20 -20 -20
8 -13 -17 7 2 -20 -20 -0 -20 9 10 3 9 11 11 -20 -20 -1 -15 -20 -20 -20 -20 -20 -20 -20 -20 -20 -20 -20 -20 -20 -20 -20 -20 -20 -20 -20 -20 -20 -20 -20 -20 -20 -20 -20 -20
-10 -2 12 -2 8 -4 -20 -20 -20 -18 15 9 9 6 13 -19 -20 -6 -19 -20 -20 -20 -18 -20 -20 -20 -20 -20 -20 -20 -20 -20 -20 -20 -20 -20 -20 -20 -20 -20 -20 -20 -20 -20 -20 -20 -20
-20 -20 -20 -13 8 -15 -20 -20 -20 -20 -7 17 9 11 12 -10 -17 -19 -20 -20 -20 -20 -20 -20 -20 -20 -20 -20 -20 -20 -20 -20 -20 -20 -20 -20 -20 -20 -20 -20 -20 -20 -20 -20 -20 -20 -12
-18 -19 -20 -20 -10 -9 -7 -20 -20 -20 -20 -9 20 12 15 7 -2 -9 -20 -20 -20 -20 -20 -20 -20 -20 -20 -20 -20 -20 -20 -20 -17 -19 -20 -20 -20 -20 -20 -20 -20 -20 -20 -20 -20 -20 -20
-11 -2 2 -6 -2 2 -20 -4 -20 -20 -20 -20 12 8 18 9 -8 -20 -20 -20 -20 -20 -20 -20 -20 -20 -20 -20 -20 -20 -20 -20 -19 -20 -20 -20 -20 -20 -20 -20 -20 -20 -20 -20 -20 -20 -20
-2 -3 -3 1 3 3 11 -5 -0 -20 -20 -20 8 17 -0 0 -20 -20 -20 -20 -7 -20 -20 -20 -20 -20 -20 -20 -20 -20 -20 -20 -20 -20 -20 -20 -20 -20 -20 -20 -20 -20 -20 -20 -20 -20 -20
-1 -14 -8 -1 4 -0 9 2 1 -14 -20 -20 -19 26 -7 -20 -20 -18 13 21 -20 -20 -20 -20 -20 -20 -20 -20 -20 -20 -20 -20 -20 -20 -20 -20 -20 -20 -20 -20 -20 -20 -20 -20 -17 -20 -20
15 12 11 11 4 3 9 10 -20 7 -19 -20 -16 -12 24 -14 -20 0 26 12 -20 -20 -20 -20 -20 -20 -20 -20 -20 -20 -20 -20 -20 -20 -20 -20 -20 -20 -20 -20 -20 -20 -20 -20 -20 -20 -20
14 14 18 11 9 13 9 14 9 4 4 -20 -8 7 18 19 -19 6 29 11 -20 -20 -20 -20 -20 -20 -20 -20 -20 -20 -20 -20 -19 -20 -20 -20 -20 -20 -20 -20 -20 -20 -20 -20 -20 -19 -20
15 14 13 16 17 13 9 9 18 10 13 -16 8 12 9 -17 11 16 21 14 -20 -20 -20 -20 -20 -20 -20 -20 -20 -20 -20 -20 -14 -7 -20 -20 -20 -20 -20 -20 -20 -20 -20 -20 -20 -20 -20
13 21 -20 -9 14 25 14 9 16 11 27 23 7 14 19 17 10 10 8 -19 -20 -20 -20 -20 -20 -20 -20 -20 -20 -20 -20 6 11 -7 -20 -20 -20 -20 -20 -20 -20 -8 -9 -20 -20 -20 -20
27 -1 -20 -20 3 20 34 15 16 22 29 23 9 17 21 15 10 17 -20 -20 -20 -20 -20 17 -20 -20 -20 -20 -20 -20 -20 -3 4 -13 -20 -20 -20 -20 -20 -20 -20 -20 -20 -20 -20 -20 -20
10 -18 -20 -20 -9 -3 36 18 13 33 28 26 16 20 30 23 -20 10 -20 -20 -19 -20 -20 -20 -20 -20 -20 -1 -16 -10 -20 -2 -3 -8 -20 -20 -20 -20 -20 -20 -20 -20 -20 -20 -20 -20 -20
11 4 9 -6 -20 -20 -5 32 20 37 35 29 27 27 16 15 9 -20 -20 -20 -20 -18 -20 -20 -20 -20 -20 13 -7 -0 -8 -7 -6 3 -20 -20 -20 -20 -20 -20 -20 -20 -20 -20 -20 -20 -20
12 17 13 13 11 -20 -9 30 42 37 38 34 29 20 18 -2 -20 -20 -20 -20 -20 -20 -20 -20 -20 -20 -20 -20 13 4 8 -10 -1 1 -20 -20 -20 -20 -20 -20 -20 -20 -20 -20 -20 -20 -20
10 14 18 25 20 8 13 7 38 36 39 39 14 -16 18 3 5 -14 -9 -20 -20 -20 -20 -20 -20 -6 -19 -8 30 17 15 2 -13 2 -20 -20 -20 -20 -20 -20 -20 -20 -20 -20 -20 -20 -20
15 17 14 24 16 10 19 -16 37 37 40 26 -10 -0 21 10 13 -20 -20 -10 -20 -20 -20 -20 -20 -13 3 12 26 14 17 -5 -20 -6 -20 -20 -20 -20 -20 -20 -20 -20 -20 -20 -20 -20 -20
18 10 18 15 17 18 16 4 31 37 36 -0 5 -3 15 13 -2 -20 -14 -16 -20 -20 -20 -20 -20 -20 3 15 9 0 23 12 -20 -7 -20 -20 -20 -20 -20 -20 -20 -20 -20 -20 -20 -20 -20
-19 10 19 20 19 16 12 -20 32 33 30 3 2 -20 2 5 11 17 -6 -3 14 12 11 -19 -13 -16 6 21 -13 -15 -3 2 21 -10 -20 -20 -20 -20 -20 -20 -20 -20 -20 -20 -20 -20 -20
11 33 23 19 15 11 -4 2 42 36 31 -4 9 -20 -13 14 23 23 10 27 -7 -8 2 1 -4 6 -13 17 -15 -20 -7 14 1 -16 -20 -20 -20 -20 -20 -20 -20 -20 -20 -20 -20 -20 -20
20 15 12 19 10 11 -20 -9 35 23 34 -6 -18 -1 -11 15 25 -20 16 27 14 -8 15 -6 8 -0 -8 0 -17 -20 -18 -16 -13 -6 -20 -20 -20 -20 -20 -20 -20 -20 -20 -20 -20 -20 -20
16 22 12 -2 22 12 -20 16 23 34 35 15 8 -2 -20 19 9 -20 5 11 19 -16 -20 18 -20 -20 -20 -13 -20 -20 -6 -0 -15 -13 7 -3 -18 -20 -20 -20 -20 -20 -20 -20 -20 -20 -20

GFSGBSN_prec_radar_033.txt.gz
Reflectivity
-13 -20 -7 13 -4 -3 -1 6 -6 6 -0 6 -20 -20 -20 -20 -20 -20 -20 -20 -20 -20 -20 -20 -20 -20 -20 -20 -20 -20 -20 -20 -20 -20 -20 -20 -20 -20 -20 -20 -20 -20 -20 -20 -20 -20 -20
4 -1 -19 -20 -13 11 -20 7 5 -0 -1 -4 6 -15 -20 -20 -20 -20 -20 -20 -20 -20 -20 -20 -20 -20 -20 -20 -20 -20 -20 -20 -20 -20 -20 -20 -20 -20 -20 -20 -20 -20 -20 -20 -20 -20 -20
4 6 8 2 -20 -20 8 -13 -5 0 -1 -20 8 -3 -20 -20 -20 -20 -20 -20 -20 -20 -20 -20 -20 -20 -20 -20 -20 -20 -20 -20 -20 -20 -20 -20 -20 -20 -20 -20 -20 -20 -20 -20 -20 -20 -20
-4 -16 1 5 10 -7 -20 -20 4 3 9 0 -5 8 3 -20 -20 -20 -20 -20 -20 -20 -20 -20 -20 -11 -19 -20 -20 -20 -20 -20 -20 -20 -20 -20 -20 -20 -20 -20 -20 -20 -20 10 5 -20 -20
-2 5 -11 -15 -6 -9 2 -18 -20 2 4 0 4 -9 5 -19 -20 -20 -20 -20 -20 -20 -20 -20 -20 -20 -20 -20 -20 -20 -20 -20 -20 -20 -20 -20 -20 -20 -20 -20 -20 -20 -10 21 -20 -20 -20
-5 1 5 9 0 -10 -20 -20 -20 -19 -9 -3 3 2 -6 2 -20 -20 -20 -20 -20 -8 -20 -20 -20 -20 -20 -20 -20 -20 -20 -20 -20 -20 -20 -20 -20 -20 -20 -20 -6 16 -17 -20 -20 -7 -20
-7 1 3 -20 -20 -20 -20 -20 -20 -20 -20 -6 -13 4 8 3 -16 -20 -20 -20 -20 -20 -20 -20 -20 -20 -20 -20 -20 -20 -20 -20 -20 -20 -20 -20 -20 -20 -20 -20 -20 -20 -20 -5 7 10 -20
-12 -11 -0 8 -20 -20 -20 -4 -20 -20 -20 -17 9 -6 3 2 -1 -20 -11 -20 -20 -20 -20 -20 -20 -20 -20 -20 -20 -20 -20 -20 -20 -20 -20 -20 -20 -20 -20 -20 -20 -20 -20 -20 3 -20 -20
-6 1 -8 2 8 3 -20 -16 -20 -20 -20 -20 -17 11 -7 -3 1 -20 -20 -20 -20 -20 -20 -20 -20 -20 -20 -20 -20 -20 -20 -20 -20 -20 -20 -20 -20 -20 -20 -20 -20 -20 -20 -7 -20 10 -20
-20 -15 1 5 5 13 -13 -20 -20 -20 -20 -20 -20 12 2 -3 -11 -20 -20 -20 -20 -20 -20 -20 -20 -20 -20 -20 -20 -20 -20 -20 -20 -20 -20 -11 -20 -20 -20 -20 -20 -20 -20 6 -20 -20 10
-20 -20 -20 -20 -2 0 -16 -16 -20 -20 -20 -20 -20 -3 17 -20 -6 -11 -20 -20 -20 -20 -20 -20 -20 -20 -20 -20 -20 -20 -20 -20 -20 -20 -20 -20 -20 -20 -20 -20 -20 -20 8 -20 -20 -20 -13
-4 -11 -3 -2 -20 -4 6 -13 -20 -20 -20 -20 -20 -20 19 23 -10 -20 -12 9 -11 -20 -20 -20 -20 -20 -20 -20 -20 -20 -20 -20 -20 -20 -20 -20 -20 -20 -20 -20 -20 -20 -20 -20 -20 -4 -7
-2 -1 7 3 -6 -20 -10 11 4 -20 -20 3 -20 -20 2 20 3 -20 13 20 -9 -20 -20 -20 -20 -20 -20 -20 -20 -20 -20 -20 -20 -20 -20 3 -20 -20 -20 -20 -20 -20 -20 -20 -1 -20 -20
7 7 -6 -1 -18 -5 -9 5 11 -20 -20 -20 3 -15 -11 7 -20 -20 -20 18 -20 -20 -20 -20 -20 -20 -20 -20 -20 -20 -20 -20 -20 -20 -19 -19 -20 -20 -20 -20 -20 -20 -20 -20 11 20 10
9 7 8 7 1 -11 -20 1 3 1 -20 -12 -2 -20 3 -17 0 6 15 22 -17 -20 -20 -20 -20 -20 -20 -20 -20 -20 -20 -20 -20 -20 -17 -1 -19 -20 -20 -20 -20 -20 -20 -20 -17 -17 -19
9 6 11 9 9 3 -20 -20 1 9 3 5 16 14 2 -19 -12 16 21 11 -20 -20 -20 -20 -20 -20 -20 -20 -20 -20 -20 -20 -20 -20 5 6 -18 -20 -20 -20 -20 -20 -20 -20 -16 15 -7
13 13 14 11 15 13 10 5 13 15 16 8 24 16 -20 18 26 23 11 12 -20 -20 -20 -20 -20 -20 -20 -20 -20 -20 -20 -20 -20 -20 -8 -2 5 -18 -20 -20 -20 -20 -20 -20 -12 -20 -20
9 0 -18 6 6 20 19 15 13 13 13 27 24 27 11 -18 25 17 8 -1 -20 -20 -20 -20 6 -20 -20 -17 4 -20 -20 -20 -20 -4 -1 1 -14 -18 -20 -20 -20 -8 -9 -20 -20 -13 -20
-0 -1 -9 -20 17 17 -1 18 18 17 20 27 28 15 23 -9 15 11 -20 -20 -20 -20 -20 -20 -20 22 3 -19 -2 -17 -20 -18 -20 -2 -18 1 -6 -20 -20 -20 -20 -20 -20 -20 -20 0 -9
10 -17 -6 -19 7 12 22 22 22 29 25 26 32 25 23 24 9 5 -14 -20 -20 -20 -20 -20 -20 -9 8 24 -8 2 -3 -1 -20 -2 11 2 -20 -20 -20 -20 -20 -20 -20 -20 -20 13 -20
-20 7 -12 -19 -20 -1 7 -19 16 24 32 28 39 34 21 23 14 -16 -20 -20 -20 -20 -20 -20 -20 -17 -15 5 -13 -2 -7 16 -20 -20 -20 -20 -20 -20 -7 -20 -20 -20 -20 -20 -20 -20 -20
-20 -3 -0 3 16 -14 -19 -20 -18 25 36 34 41 30 18 -20 4 4 5 -20 -20 -20 -20 -20 -20 -20 21 26 10 20 10 -7 8 -19 -20 -20 -20 -20 -8 -20 -20 -20 -20 -20 -20 -20 -20
-10 -7 -4 14 13 11 11 9 -20 32 41 44 38 23 11 -18 6 18 -2 -20 -20 -20 -20 -20 -20 -20 -20 28 27 -6 31 -15 26 -13 -20 -20 -20 -7 -12 -20 -20 -20 -20 -20 -20 -20 -20
11 14 8 16 15 12 11 9 -3 7 35 40 34 11 16 2 20 -13 -20 -20 -20 -20 -20 -20 -14 -14 -20 3 9 -13 11 17 5 -20 -17 -20 -20 -0 4 -19 7 -20 -20 -20 -20 -20 -20
-18 11 20 28 16 12 14 16 9 -18 36 35 26 16 19 18 -16 1 -14 -20 -20 -20 -4 -15 -20 -19 -13 -15 -12 -20 13 28 29 15 8 -20 1 -3 18 -20 -20 -20 -20 -20 -20 -20 -20
-15 -10 0 17 19 16 13 19 16 7 28 33 20 22 15 17 17 -20 2 -20 -20 -20 13 -10 10 8 8 -8 -7 -20 -20 12 7 28 -17 -11 -5 20 1 -20 -20 -20 -20 -20 -20 -20 -20
-3 21 27 21 21 18 11 32 -5 -20 35 26 36 20 8 13 19 22 23 -3 -20 -14 5 -9 29 30 -18 17 9 -20 -20 -6 15 22 29 -6 -12 -20 23 -3 -20 -20 -20 -20 -20 -20 -20
14 -1 15 7 21 15 28 24 -20 -20 16 35 32 18 1 20 19 26 -3 -12 -20 15 19 1 25 22 21 20 -18 -20 -20 -11 9 -9 31 14 -6 -19 18 12 -20 -19 -20 -20 -20 -20 -20
12 20 23 8 21 16 26 8 -18 -3 29 39 21 4 -2 29 36 13 -3 -9 8 -18 -20 -20 -18 -11 -20 -20 -20 -20 4 -20 -6 -15 -4 20 28 25 -18 -20 -15 -11 -20 -20 -20 -20 -20

GFSGBSN_prec_radar_036.txt.gz
Reflectivity
12 21 -9 -20 -20 -20 3 9 0 0 -15 -20 -20 -20 -20 -20 -20 -20 -20 -20 -20 -20 -20 -20 -20 -20 -20 -20 -20 -20 -20 -20 -20 -20 -20 -20 -20 -20 -20 -20 -20 -20 -20 -20 -20 -20 -20
-12 -17 7 13 10 3 6 -0 -3 5 -0 7 -20 -14 6 -20 -20 -20 -20 -20 -20 -20 -20 -20 -20 -20 -20 -20 -20 -20 -20 -20 -20 -20 -20 -20 -20 -20 -20 -20 -20 -20 -20 -20 -20 -20 -20
6 1 -11 3 -2 5 11 16 4 -6 8 1 8 -20 -20 -20 -20 -20 -20 -20 -20 -20 -20 -20 -20 -20 -20 -20 -20 -20 -20 -20 -20 -20 -20 -20 -20 -20 -20 -20 -20 -20 -20 -20 -20 -20 -20
10 4 9 5 -1 -11 -19 -5 -4 -7 -20 1 5 2 -10 -0 -20 -20 -20 -20 -20 -20 -20 -20 -20 -20 -20 -20 -17 -20 -20 -20 -20 -20 -20 -20 -20 -20 -20 -20 -20 -20 -20 -20 -20 5 23
-1 -1 -17 -7 11 -9 -20 -20 -9 -8 -20 -20 -19 -13 -15 -20 -20 -20 -20 -20 -20 -20 -20 -20 -20 -20 -20 -20 -20 -20 -20 -20 -20 -20 -20 -20 -20 -20 -20 -20 -20 -20 -20 -20 -20 -16 -20
4 3 3 -20 -20 -13 -0 -13 -20 -20 -20 -20 -20 -15 2 -20 -19 -20 -20 -20 -20 -20 -20 -20 -20 -20 -20 -20 -20 -20 -20 -20 -20 -20 -20 -20 -20 -20 -20 -20 -20 -20 -20 -8 -9 2 -11
8 12 12 13 -20 -20 -20 -20 -20 -20 -20 -20 -20 -18 -4 1 -0 -20 -20 -20 -20 -20 -20 -20 -20 -20 -20 -20 -20 -20 -20 -20 -20 -20 -20 -20 -20 -20 -20 -20 -20 -20 -20 -9 -18 -20 -20
-7 -20 -10 7 9 -3 -4 3 0 -20 -20 -20 -20 -20 10 5 -2 -6 -20 -20 -20 -20 -20 -20 -20 -20 -20 -20 -20 -20 -20 -20 -20 -20 -20 -20 -20 -20 -20 -20 -20 -20 -20 -20 -4 -20 -20
10 -20 -20 -9 7 -3 -2 -18 10 9 -20 -20 -20 -20 -12 -1 -15 -20 -20 -20 -20 -20 -20 -20 -20 -20 -20 -20 -20 -20 -20 -20 -20 -20 -20 -20 -20 -20 -20 -20 -20 -20 -20 -20 -1 -9 -20
11 6 -0 -20 7 -18 -16 -3 -15 1 -20 -20 -20 -20 -20 10 -19 -20 -20 -20 -20 -20 -20 -20 -20 -20 -20 -20 -20 -20 -20 -20 -20 -20 -20 -20 -20 -20 -20 -20 -20 -20 -20 -20 -20 -20 -20
-20 7 -18 -10 9 10 12 -10 -19 -20 -14 -20 -20 -20 -20 -18 -20 -20 -11 -20 -20 -10 -20 -20 -20 -20 -20 -20 -20 -20 -20 -20 -20 -20 -20 -20 -20 -3 -20 -20 -20 -20 -20 -20 -20 -16 -20
8 -1 -6 11 7 4 9 13 14 7 -20 -13 -20 -20 -20 -20 -14 -20 -20 -20 -20 -20 -20 -20 -20 -20 -20 -20 -20 -20 -20 -20 -20 -20 -20 -20 -20 -20 -20 -20 -20 -20 -20 -20 -20 -20 -20
8 1 -7 3 -10 7 5 8 12 -4 -3 13 -18 -4 -20 -20 2 -20 -20 24 2 -20 -20 -20 -20 -20 -20 -20 -20 -20 -20 -20 -20 -20 -20 -20 -20 -20 -20 -20 -20 -20 -20 -20 -20 -20 -20
0 -18 -10 -1 1 -15 -4 7 9 8 13 -13 -20 12 -11 -20 -20 -1 -19 19 -20 -20 -20 -20 -20 -20 -20 -20 -20 -20 -20 -20 -20 -20 -20 -20 -20 -20 -20 -6 -20 -20 -20 -20 7 16 -14
-14 -18 -19 -11 3 10 -10 4 10 8 -20 13 11 17 15 -18 -20 21 16 23 -20 -20 -20 -20 -20 -20 -20 -20 -20 -20 -20 -20 -20 -20 -20 -20 -20 -20 -20 -20 -20 -19 -20 -20 -20 9 -11
11 7 5 0 1 6 -0 7 11 14 -10 -20 19 21 17 6 -19 24 17 15 -10 -20 -20 -20 -20 -20 -20 -20 -20 -20 -20 -20 -20 -20 -20 -20 -20 -15 -12 -20 -20 -16 -18 10 -9 -0 9
9 8 -7 1 2 1 -1 10 10 15 14 14 18 22 9 -8 -4 21 7 -14 -20 -20 -20 -20 -20 -20 -20 -20 4 -20 -20 -20 -20 -20 -20 -20 -20 -20 -2 1 1 -7 -20 -20 8 -20 -20
-6 -10 7 -4 8 8 8 12 13 16 17 20 19 28 -3 19 15 16 15 -20 -20 -20 -20 -20 -20 -20 -20 -20 -10 25 -20 -20 -20 -20 -20 -20 -20 -20 -20 5 3 -19 -20 -20 -20 3 -14
12 10 11 12 8 12 -12 -15 7 20 26 25 27 25 19 -18 12 8 -6 -20 -20 -20 -20 -20 -20 -20 -20 -20 10 21 17 -20 -14 3 -20 -20 -20 -20 -20 3 4 -19 -19 -5 -20 -4 -18
12 14 11 21 15 16 9 21 18 17 27 33 31 28 22 25 -11 -1 0 -20 -20 -20 -20 -20 -20 -20 -20 -20 9 18 4 5 13 -10 -20 7 -16 -20 -20 -20 9 8 -11 -18 -15 -11 -13
13 16 18 10 -20 2 -20 -20 13 17 28 32 38 30 18 23 13 -20 -8 -20 -20 -20 -20 -20 -20 -20 -20 -20 -19 -19 11 29 28 -19 -20 15 9 -20 -20 -20 -18 0 -20 -20 -20 16 11
15 13 14 14 11 19 -20 -20 13 34 21 30 37 31 11 -20 10 5 -3 -17 -20 -20 -20 -20 -20 -20 -20 -20 15 22 38 38 15 7 -20 9 -20 -20 -20 -17 -20 -20 7 -9 -20 -20 -3
-19 4 -7 -14 -11 2 9 -20 -18 -18 31 40 39 33 13 -19 14 14 1 -20 -20 -20 -20 -20 -20 -20 -20 -20 2 -2 12 23 26 17 12 -20 -20 -3 -12 -20 -20 -19 -20 -20 -20 -20 -20
8 9 11 11 6 2 -3 -20 -20 -20 12 37 39 29 33 26 11 -13 -20 -20 -20 -20 -20 -20 -20 -20 -20 -20 -2 -5 -8 28 34 0 4 -20 -20 -20 15 -20 -20 -20 -20 -18 -20 -20 -20
8 7 13 11 16 16 2 1 17 12 10 13 40 35 25 27 8 5 -20 -20 -20 -16 -18 -20 -20 -20 -20 -20 16 15 10 31 16 36 8 -18 -20 7 9 -20 -20 -20 -19 -8 -20 -20 -20
5 -11 9 6 15 15 21 16 11 14 16 21 24 29 28 26 12 -20 -20 -20 11 7 6 -20 -20 -7 15 -20 28 36 26 4 2 14 30 29 -16 20 8 -16 -20 -20 -5 -1 -20 -20 -20
-1 -8 -4 3 14 14 16 31 29 19 17 22 -12 34 31 31 -11 2 9 -7 -1 -8 -5 -20 -20 -13 21 -20 -11 23 -19 -19 -13 1 24 30 -14 17 7 -4 -18 -20 10 -8 8 -11 -20
-4 -20 -20 -10 4 11 26 32 31 23 21 19 -13 37 35 30 17 13 -16 -20 15 1 -2 -20 6 -20 19 16 11 23 -20 -20 -20 -17 -0 24 35 17 20 8 -20 1 9 -1 -20 -13 7
-20 -20 -11 2 39 14 16 15 19 28 19 -2 23 37 23 14 33 -16 -10 7 11 -12 -17 -13 -18 33 9 19 0 15 -20 -20 -20 -20 -20 -1 9 27 -16 0 -20 17 13 -5 -17 -20 -20

GFSGBSN_prec_radar_042.txt.gz
Reflectivity
-7 -20 -20 -20 -10 -6 -0 6 12 12 -20 -20 -5 -16 5 -20 -20 -20 -19 -20 -20 -20 -20 -20 -20 11 -18 -20 -20 -20 -20 -20 -20 -20 -20 -20 -20 -20 -20 -20 -20 -20 -20 -20 -20 -20 -20
2 -8 -20 -20 -20 -15 10 8 -2 17 17 -19 -16 1 -7 -14 -20 -20 -20 -20 -20 -20 -20 -20 -20 2 -20 -20 -20 -20 -20 -20 -20 -20 -20 -20 -20 -20 -20 -20 -20 -20 -20 -20 -20 -20 -20
3 3 2 -7 -20 -20 -20 -15 23 5 8 -16 -20 -5 4 -20 -20 -20 -20 -20 -20 -20 -20 -20 -20 6 -20 -20 -20 -20 -20 -20 -20 -20 -20 -20 -20 -20 -20 -20 -20 -20 -20 -20 -20 -20 -20
3 5 5 6 5 -17 -20 7 -18 23 18 12 7 -19 -13 11 -20 -20 -20 -10 -20 -20 -20 -20 -20 3 -20 -20 -20 -20 -20 -20 -20 -20 -20 -20 -20 -20 -20 -20 -20 -20 -20 -20 -20 -20 -20
-20 4 5 6 3 -15 -8 -3 4 -14 -7 27 15 -20 -20 -20 -18 -17 -20 4 -17 -20 -20 -20 -20 -11 -20 -20 -20 -20 -20 -20 -20 -20 -20 -20 -20 -20 -20 -20 -20 -20 -20 -20 -20 -20 -20
8 7 8 10 11 -12 -10 12 -1 -6 -18 1 16 4 -20 -20 -14 -8 -14 5 -19 -20 -20 -20 -20 -20 -20 -20 -20 -20 -20 -20 -20 -20 -20 -20 -20 -20 -20 -20 -20 -20 -20 -20 -20 -20 -20
9 9 7 -20 -4 -20 -8 -4 -3 -13 -20 -20 -20 -5 3 -16 -17 13 -11 -15 -15 -20 -20 -20 -20 -20 -20 -20 -20 -20 -20 -20 -20 -20 -20 -20 -20 -20 -20 -20 -20 -20 -20 -20 -20 -20 -20
0 -9 -6 9 0 13 -1 -5 14 -2 -10 6 14 -16 -20 -20 1 2 8 1 -20 -20 -20 -20 -20 -20 -20 -20 -20 -20 -20 -20 -20 -20 -20 -20 -20 -20 -20 -20 -20 -20 -20 -20 -20 -20 -20
7 5 8 8 0 8 -20 -10 -2 8 5 -8 -15 -8 -11 -20 -13 -20 -18 -2 1 -9 -20 -20 -20 -20 -20 -20 -20 -20 -20 -20 -20 -20 -20 -20 -20 -20 -20 -20 -20 -20 -20 -20 -20 -20 -20
14 8 -20 -10 -0 -20 -20 -20 6 4 -10 -20 -20 -20 -6 -20 -20 -20 -20 -20 -18 -14 -20 -20 -20 -20 -20 -20 -20 -20 -20 -20 -20 -20 -20 -20 -20 -20 -20 -20 -20 -20 -20 -20 -20 -20 -20
13 3 8 -20 -20 1 -1 2 4 8 1 2 -19 -19 -16 -19 -20 -20 -20 -20 -20 -20 -20 -20 0 -18 -20 -20 -19 -11 -20 -20 -20 -20 -20 -20 -20 -20 -20 -20 -20 -20 -20 -20 -20 -20 -20
14 7 -1 -20 -20 -17 7 11 11 8 13 9 11 -11 4 -20 -20 -20 -20 -20 -14 -20 -20 -20 -20 -20 -20 -20 -20 -13 -20 -20 -20 -20 -20 -20 -20 -20 -20 -20 -20 -20 -20 -20 -20 -20 -20
10 2 -20 -0 -20 -20 -20 -16 17 15 14 8 11 2 10 -20 -20 -20 -20 -11 17 -20 -20 -20 -20 -20 -20 -20 -20 -20 -20 -20 -20 -20 -20 -20 -20 -20 -20 -20 -20 -20 -20 -20 -20 -20 -20
5 2 -20 -5 -17 -19 -20 9 14 -18 11 16 13 22 -3 -20 -20 -20 -20 8 -0 -20 -20 -20 -20 -20 -20 -20 -20 -20 -20 -20 -20 -20 -20 -20 -20 -20 -20 -20 -12 -20 -20 -20 -20 -20 -20
1 0 -8 -3 -20 4 -16 -13 -8 -20 4 19 16 14 -3 -20 -20 -19 -19 8 -20 -20 -20 -20 -20 -20 -20 -20 -20 -20 -20 -20 -20 -20 -20 -20 -20 -20 -20 -20 -20 -20 -20 -20 -20 -20 -20
1 -8 -15 -20 -20 -19 -13 2 -2 6 -20 17 20 17 1 -20 -20 -6 4 0 -20 -20 -20 -20 -20 -20 -20 -20 -20 -20 -20 -20 -20 -20 -20 -20 -20 -20 -20 -20 -20 -20 -20 -20 -20 -20 -20
-20 -20 -20 -20 -11 -14 12 12 -8 17 1 22 33 32 11 -15 11 14 -3 -10 -20 -20 -20 -20 -20 -20 -20 -20 -20 -20 -20 -20 -20 -20 -20 -20 -20 -20 -20 -20 -20 -20 -20 -20 -20 -20 -20
-18 -9 -20 -20 -20 12 0 10 -5 4 -1 31 36 34 1 -6 20 5 -20 -20 -20 -20 -20 -20 -20 -20 -20 -19 -4 -20 -20 -20 -20 -20 -20 -20 -20 -20 -20 -20 -20 -20 -20 -20 -20 -20 -20
4 -5 3 8 7 9 6 10 22 18 25 31 37 33 25 -20 -20 -15 -20 -20 -20 -20 -20 -20 -20 -20 -20 -20 6 -18 -20 -18 9 -2 -6 -15 -20 -20 -20 -20 -20 -20 -20 -20 -20 -20 -20
-9 7 -20 -2 12 10 11 13 16 27 29 31 37 29 30 12 -20 -20 -13 -20 -18 -13 -20 -20 -20 -20 -20 -20 -20 -20 -11 -20 14 8 -1 -8 9 -20 -20 -20 -20 -20 -20 -20 -20 -20 -20
8 -20 -15 10 12 15 16 22 21 19 31 35 39 24 3 24 -4 -20 -20 -20 -20 -16 -15 -20 -20 -20 -20 -20 -20 -20 -20 -20 -17 7 -9 5 22 -14 -20 -20 -20 -20 -20 -20 -20 -20 -20
5 -9 9 12 17 15 11 11 15 21 29 37 36 23 2 -17 4 3 -20 -20 -20 -20 -20 -20 -20 -20 -20 -20 -20 -20 -20 -20 -20 -20 25 13 -3 24 -20 -20 -20 -20 -20 -20 -20 -20 -20
5 11 14 12 13 13 14 13 13 17 29 39 32 17 -6 5 -3 3 -17 -20 -20 -20 -20 -20 -20 -20 -20 -20 -20 -20 -20 -20 -20 -7 11 10 6 9 -12 -20 -19 -16 -20 -20 -20 -20 -20
15 13 14 15 15 19 19 17 20 20 24 33 30 24 29 14 14 -1 -20 -20 -20 -16 -20 -20 -20 -20 -20 -20 -20 -20 -20 -20 -20 -20 -20 -20 -10 31 22 -20 7 13 -20 -20 -20 -20 -12
13 14 16 14 -13 -20 -20 -20 -20 -7 29 32 28 29 21 22 16 -20 -20 -20 -20 -20 -20 -20 -20 -20 -20 -20 -20 -20 -20 -20 -20 -20 -20 -20 -4 11 12 14 24 -20 -20 -20 -20 -20 -20
13 -14 -6 -1 4 5 -3 -19 -20 -20 -5 24 28 17 31 32 18 -20 -20 -20 -20 -20 -20 -20 -20 -8 13 -20 3 -20 -20 -20 -20 -20 -18 -20 2 5 14 11 27 3 -20 -20 -18 -20 -20
-20 -10 -7 6 9 16 16 18 13 -2 -16 15 25 28 27 35 24 -20 -20 -20 -20 -20 -20 -20 -20 -19 1 -7 -19 -20 -6 -20 -12 -20 -7 7 -3 -7 13 17 -9 29 6 -20 11 8 1
7 14 5 5 8 -5 22 22 2 16 -2 24 11 29 20 31 14 21 -20 -20 -20 -20 -20 -20 -18 -20 -8 2 9 -20 -20 -20 -20 -20 -20 -20 -15 -12 12 12 -14 21 24 4 -1 -20 11
-20 3 2 -9 -11 10 -2 -0 16 14 20 24 26 13 17 27 22 16 -20 -20 -20 -20 -20 -20 -20 -20 -19 -18 -8 -20 -9 -19 -20 -20 -20 -20 -20 -4 13 8 0 -7 29 -19 -20 -20 -4

GFSGBSN_prec_radar_045.txt.gz
Reflectivity
4 -10 -2 -2 6 -2 5 4 -9 -20 -20 -16 11 16 2 -14 -20 -8 -6 -20 -20 -20 -20 -20 -20 -20 -20 -20 -20 -20 -20 -20 -20 -20 -20 -20 -20 -20 -20 -20 -20 -20 -20 -20 -20 -20 -20
7 8 7 2 -20 -20 -20 -20 -12 -6 -20 -20 -20 12 25 4 17 -9 -17 -20 -18 -20 -20 -20 -20 -20 -19 -20 -20 -20 -20 -20 -20 -20 -20 -20 -20 -20 -20 -20 -20 -20 -20 -20 -20 -20 -20
7 7 5 6 -18 -20 -20 -20 -20 -20 -20 -20 -20 -17 -20 5 0 8 20 -16 7 -20 -20 -20 -20 -11 -17 -20 -20 -20 -20 -20 -20 -20 -20 -20 -20 -20 -20 -20 -20 -20 -20 -20 -20 -20 -20
6 -6 -5 -0 -20 0 -20 -20 -20 -20 -20 -20 -20 -20 -20 -20 -20 2 9 0 -6 -20 -20 -20 -20 -8 -20 -20 -20 -20 -20 -20 -20 -20 -20 -20 -20 -20 -20 -20 -20 -20 -20 -20 -20 -20 -20
16 11 4 2 9 5 -20 -20 -3 -20 -20 -20 -4 -20 -20 -20 -19 9 12 -5 8 -20 -20 -20 -20 -20 -20 -20 -20 -20 -20 -20 -20 -20 -20 -20 -20 -20 -20 -20 -20 -20 -20 -20 -20 -20 -20
13 -13 -5 11 -14 -20 -20 -20 -20 -20 -0 -9 -15 -14 -19 -2 7 -1 9 -20 -1 -20 -20 -20 -3 -20 -20 -20 -20 -20 -20 -20 -20 -20 -20 -20 -20 -20 -20 -20 -20 -20 -20 -20 -20 -20 -20
19 8 -12 -14 -20 9 -20 6 11 -20 -20 -20 16 -7 3 -9 20 12 -20 -20 -20 -20 -20 -20 -20 -20 -20 -20 -20 -20 -20 -20 -20 -20 -20 -20 -20 -20 -20 -20 -20 -20 -20 -20 -20 -20 -20
17 5 0 1 5 10 -4 12 -20 -15 -12 12 6 4 -2 -7 -12 14 6 -19 -20 -20 -19 -20 -20 -20 -20 -20 -20 -20 -20 -20 -20 -20 -20 -20 -20 -20 -20 -20 -20 -20 -20 -20 -20 -20 -20
14 10 -20 11 -20 -6 -10 -2 -20 -20 -20 -12 -6 -8 -4 2 -20 -20 -20 -20 -9 -15 -13 -20 -20 -20 -6 -20 -20 -20 -20 -20 -20 -20 -20 -20 -20 -20 -20 -20 -20 -20 -20 -20 -20 -20 -20
14 11 9 10 -16 5 -11 -20 -20 -20 -20 3 -9 -15 -16 -9 -20 -20 -20 -20 -19 -17 -19 -3 -18 -20 -19 -20 -20 -20 -20 -20 -20 -20 -20 -20 -20 -20 -20 -20 -20 -20 -20 -20 -20 -20 -20
14 14 12 14 10 -20 -20 -20 -20 -20 -19 -14 -14 18 -11 -12 -20 -20 -6 -16 1 -6 -20 -12 -0 -20 -20 -20 -20 5 -5 -20 -20 -20 -20 -20 -20 -20 -20 -20 -20 -20 -20 -20 -20 -20 -20
14 7 13 14 -3 -20 -7 -20 -20 -20 -20 -20 -7 11 -15 -20 -20 -20 -20 -20 -18 -13 -20 -20 -20 -15 -20 -20 -20 -10 -7 -20 -20 -20 -20 -20 -20 -20 -20 -20 -20 -20 -20 -20 -20 -20 -20
15 13 12 4 8 -4 -14 -20 -1 -20 -20 -20 -18 -3 0 -20 -20 -20 -20 -20 14 -9 -20 -20 -19 -4 -20 -20 -20 -8 -12 -20 -19 -20 -20 -20 -20 -20 -20 -20 -20 -20 -20 -20 -20 -20 -20
14 9 13 15 11 8 -18 -20 -20 -18 -20 -20 -20 4 -6 -20 -20 -20 -20 -14 7 -20 -20 -20 -20 -20 -17 -4 -20 -20 -14 -20 -20 -20 -20 -20 -20 -20 -20 -20 -20 -20 -20 -20 -20 -20 -20
14 14 14 8 5 -3 -4 -20 -8 -20 -20 -20 -13 9 15 -20 -20 -20 -20 -5 -4 -20 -20 -20 -20 -20 -20 -20 -18 -20 -20 -20 -20 -20 -20 -20 -20 -20 -20 -20 -20 -20 -20 -20 -20 -20 -20
9 17 15 7 4 -11 -16 -20 -20 -20 -20 -19 15 21 8 -20 -11 -11 -0 -12 -2 -20 -20 -20 -20 -20 -20 -20 -20 -20 -20 -20 -20 -20 -20 -20 -20 -20 -20 -20 -20 -20 -20 -20 -20 -20 -20
14 10 6 4 -20 -9 -12 -20 -20 3 -20 17 27 32 13 -14 19 7 -19 -3 -19 -20 -20 -20 -20 -20 -20 -20 -20 -20 -20 -20 -20 -20 -20 -20 -20 -20 -20 -20 -20 -20 -20 -20 -20 -20 -20
13 6 1 -0 -20 -20 -20 14 18 17 18 20 33 33 13 -19 30 18 -20 -20 -20 -20 -20 -20 -20 -20 -20 -17 -20 -20 -20 -20 -20 -20 -20 -20 -20 -20 -20 -20 -20 -20 -20 -20 -20 -20 -20
10 0 -20 1 -1 -1 -17 -15 2 18 13 20 38 28 22 -12 13 -16 -13 -20 -20 -20 -20 -20 -20 -20 -20 -20 -20 -20 -18 1 -20 -20 -20 -10 -18 -20 -20 -20 -20 -20 -20 -20 -20 -20 -20
11 -0 -20 -8 -20 -10 -18 -6 19 16 20 29 38 21 31 27 -1 -20 -3 -19 -12 -20 -20 -20 -20 -20 -20 -20 -20 -20 -20 -1 -20 -20 -11 -20 -10 -5 9 -20 -20 -20 -20 -20 -20 -20 -20
5 -11 -5 1 -15 -4 -20 16 12 16 25 34 38 18 5 21 23 -13 -16 -9 -20 -12 -20 -20 -20 -20 -20 -20 -20 -20 -20 -18 5 -4 4 -20 -20 -20 -20 -7 -20 -20 -20 -20 -20 -20 -20
-20 -3 -20 2 -20 -20 13 11 12 19 30 38 30 15 9 18 5 5 -13 -20 -20 -20 -7 -20 -20 -20 -20 -20 -20 -20 -20 -20 -20 1 -20 12 -5 -6 -20 -19 -3 -20 -20 -20 -20 -20 -20
6 5 6 -20 -13 12 12 13 15 25 34 38 27 1 4 14 12 0 -19 -4 -14 -20 -20 -20 -20 -20 -20 -20 -20 -20 -20 -20 -20 -12 -20 -10 -10 -4 3 -20 -7 -20 -20 -20 -20 -20 -20
-8 -20 -13 -3 9 14 15 13 18 31 35 31 18 12 6 -2 -13 6 -3 -20 -20 -19 -20 -20 -20 -20 -20 -20 -20 -20 -4 9 -12 -13 -8 -20 -20 -19 -19 -17 4 -0 -20 -20 -20 -20 -16
-20 6 7 14 15 14 16 16 21 29 33 31 25 15 11 -1 13 8 10 -4 -16 -20 -20 -20 -20 -20 -7 -20 -20 -20 -20 -20 -20 -20 -1 -20 -20 -20 -20 -20 -10 3 -19 1 -5 -20 -20
12 15 14 16 16 19 19 22 27 27 30 33 31 25 22 17 13 8 25 7 0 -20 -20 -20 -20 -15 -20 -20 5 -9 -20 -20 -20 12 4 -18 -20 -20 -12 -20 -20 -20 -20 13 11 -9 -20
19 20 19 17 4 -20 -20 -20 2 4 21 31 34 32 21 14 13 12 20 8 12 -19 -20 -20 -14 6 -16 -20 2 -7 -19 -19 -20 -12 -18 -7 -13 -16 -3 -20 -20 -20 0 -1 -17 -5 -20
-13 -10 -10 -20 -20 -9 2 14 3 -1 12 17 23 26 29 31 19 22 6 17 -18 -5 -20 -20 5 12 3 -2 10 -9 -20 -20 -20 -20 -20 -20 -15 -20 -13 -4 -20 -17 0 -13 -0 16 -20
18 18 12 8 16 11 5 15 16 18 16 21 14 13 27 29 14 -20 -19 -20 -20 -17 -9 -18 -20 -9 5 -20 -20 -20 -20 -20 -20 -20 -20 -20 -20 -20 -20 -20 -20 -1 7 -10 14 26 -18

GFSGBSN_prec_radar_048.txt.gz
Reflectivity
-10 4 -16 -14 4 7 -3 -18 -20 -20 -20 -20 -20 -20 -20 -20 -20 -19 -11 4 -14 -20 -20 -20 -20 -20 -20 -20 -20 -20 -20 -20 -20 -20 -20 -20 -20 -20 -20 -20 -20 -20 -20 -20 -20 -20 -20
11 14 8 10 7 -11 7 2 -20 -15 -20 -20 -20 -20 -20 -20 -20 -6 -5 -2 1 0 -6 -12 -20 -20 -20 -20 -20 -20 -20 -20 -20 -20 -20 -20 -20 -20 -20 -20 -20 -20 -20 -20 -20 -20 -20
18 17 14 10 -20 2 -7 -1 -20 6 -20 -20 -20 -20 -20 -20 -20 -20 -4 2 3 23 -4 -20 -20 -9 -17 -13 -20 -20 -20 -20 -20 -20 -20 -20 -20 -20 -20 -20 -20 -20 -20 -20 -20 -20 -20
10 14 14 9 8 12 11 8 -15 -14 -20 -20 -20 9 -20 -20 -20 -20 -20 -20 -20 6 -5 -19 -20 -10 -16 6 -20 -20 -20 -20 -20 -20 -20 -20 -20 -20 -20 -20 -20 -20 -20 -20 -20 -20 -20
14 17 13 10 13 5 -20 -20 -20 -20 -20 -8 -20 -13 1 -20 -20 -20 -20 -20 -20 -20 8 5 -2 -14 -7 12 -20 -20 -20 -20 -20 -20 -20 -20 -20 -20 -20 -20 -20 -20 -20 -20 -20 -20 -20
15 12 14 -1 -20 -20 -20 2 -20 -3 -11 3 -20 -20 -20 -20 -20 -20 -20 -20 -20 -20 -3 -18 -15 -20 -16 19 -10 -20 -20 -20 -20 -20 -20 -20 -20 -20 -20 -20 -20 -20 -20 -20 -20 -20 -20
16 13 13 3 4 11 -15 9 -6 16 -6 -20 -20 -20 -20 -20 -20 -20 -20 -20 -20 -20 -20 -20 -20 -20 10 15 9 -14 -20 -20 -20 -20 -20 -20 -20 -20 -18 -20 -20 -20 -20 -20 -20 -20 -20
10 11 13 12 -20 9 -17 2 -3 -20 -20 -20 -20 -20 8 -12 -18 -12 -20 -20 -20 -17 -19 -20 -20 -20 11 9 -3 3 -20 -20 -20 -20 -20 -20 -20 -20 -20 -20 -20 -20 -20 -20 -20 -20 -20
3 -14 13 12 8 7 1 -6 -11 -20 -20 -20 -20 -20 -20 -19 -20 -20 -13 -20 -19 -16 4 10 -4 -2 15 8 -20 -9 -20 -20 -20 -20 -20 -20 -20 -20 -20 -20 -20 -20 -20 -20 -20 -20 -20
10 7 7 14 4 14 8 -20 -20 -20 -20 -20 -20 -20 -20 -20 -20 -20 -20 -8 -2 -20 -19 -19 5 -19 10 -4 -20 5 -9 -20 -20 -20 -20 -20 -20 -20 -20 -20 -20 -20 -20 -20 -20 -20 -20
15 14 -20 13 10 4 7 0 -20 -20 -20 -20 -20 -20 -18 11 -20 -20 -20 -20 -9 -20 -20 -20 -20 -20 -20 -12 -20 14 -3 -7 -20 -20 -20 -20 -20 -20 -20 -20 -20 -20 -20 -20 -20 -20 -20
13 -0 8 11 7 13 -11 -4 -20 -20 -20 -20 -20 -20 -20 -19 -17 -20 -20 -20 -2 -6 -20 -20 -20 -20 -20 -20 -20 -9 10 -17 -20 -20 -20 -20 -20 -20 -20 -20 -20 -20 -20 -20 -20 -20 -20
15 14 14 13 9 12 -0 4 -20 -20 -20 -20 -18 4 4 -20 -20 -20 -20 -20 -7 -7 -20 -20 -20 -20 -20 -20 -20 -20 -16 -15 -19 -13 -20 -20 -20 -19 -20 -20 -20 -20 -20 -20 -20 -20 -20
15 14 15 13 11 11 8 -20 -20 -20 -20 -20 -20 -7 -20 11 -20 -20 -20 1 10 -20 -20 -20 -20 -16 -6 -12 -20 -7 -20 -20 -20 -20 -19 -20 -20 -20 -20 -20 -20 -20 -20 -20 -20 -20 -20
14 13 12 8 13 13 10 4 -20 -20 -20 -20 -16 -20 -9 -20 -16 -20 -20 -20 -12 -19 -20 -20 -20 -20 -4 -18 -20 -20 -5 -18 -20 -20 -20 -20 -20 -20 -20 -20 -20 -20 -20 -20 -20 -20 -20
13 15 11 11 2 14 8 3 -20 -20 -20 -20 -6 11 -16 -13 1 6 -10 -20 -11 -20 -20 -20 -20 -20 -20 -16 -19 -20 -20 -20 -20 -20 -20 -20 -20 -15 -14 -20 -20 -20 -20 -20 -20 -20 -20
14 13 9 -1 14 12 8 -18 -20 -20 -20 -20 13 19 10 -20 14 34 6 -14 -20 -20 -20 -20 -20 -20 -20 -20 -20 -20 -20 -20 -20 -20 -20 -20 -20 -9 -3 -20 -20 -20 -20 -20 -20 -20 -20
8 13 14 -13 11 7 6 8 -20 -20 -20 20 19 20 7 -8 21 30 9 -20 -20 -20 -20 -20 -20 -20 -20 -20 -20 -20 -20 -20 -20 -20 -20 -20 -20 -20 -20 -20 -20 -20 -20 -20 -20 -20 -20
14 14 13 9 11 10 -20 11 -12 -20 5 17 25 7 5 21 18 -1 5 -19 -20 -20 -20 -20 -20 -20 -20 -20 -20 -20 -0 -20 -20 -20 -19 -20 -20 -20 -20 -20 -20 -20 -20 -20 -20 -20 -20
14 11 4 9 15 9 -7 9 -14 -20 -7 19 29 13 13 29 22 -8 -4 -3 -20 -20 -20 -20 -20 -20 -20 -20 -20 -20 -20 -20 -15 -17 -20 -20 -20 -20 -20 -20 -20 -20 -20 -20 -20 -20 -20
13 14 -20 5 14 4 5 -10 -15 -20 -3 23 34 15 22 12 23 22 -1 -5 -20 -20 -20 -20 -20 -20 -20 -20 -20 -20 -17 -0 -20 -20 -20 -20 -20 -20 -20 -20 -20 -20 -20 -20 -20 -20 -20
19 13 17 16 5 -20 -10 14 -20 -20 15 28 26 20 12 16 4 2 26 -14 -10 -4 -20 -5 -20 -20 -20 -20 -20 -20 -20 -20 -20 -20 -20 -20 -20 -20 -20 -20 -20 -20 -20 -20 -20 -20 -20
17 17 8 -20 -20 -20 -1 -15 -20 -1 7 32 24 17 17 -1 10 3 8 0 -5 9 -15 -20 -19 -13 -20 -19 -20 -20 -20 -20 -20 -20 -20 -20 -20 -20 -20 -20 -20 -20 -20 -20 -20 -20 -20
-19 -3 -20 -15 -6 -20 -10 -20 -20 -15 18 24 29 16 28 14 -14 11 14 -9 0 2 2 12 13 -5 12 -20 -20 -20 -20 -20 -20 -20 -20 -20 -20 -20 -20 -20 -12 -20 -20 -9 -20 -20 -20
-19 9 9 11 12 -20 -5 10 10 16 17 28 30 13 13 12 -4 10 11 27 5 9 7 7 -18 15 -8 -12 -15 -20 -20 -20 -20 -20 -20 -20 -20 -20 -20 -13 -20 -20 -20 -20 -19 -20 -20
9 15 18 11 5 11 10 10 15 16 19 28 29 22 26 29 7 -20 23 17 -5 -12 2 -13 8 13 -17 -20 7 1 -20 -20 -20 -3 -20 -20 -20 -18 -20 -20 -20 -20 -20 -20 -20 -20 -20
12 22 24 19 13 15 13 16 14 5 23 29 31 23 32 32 5 -11 13 24 18 -18 -10 -7 17 9 -20 -16 9 3 -19 -20 -14 -17 2 4 0 1 -2 5 -20 -20 -20 -20 -20 -20 -20
24 23 17 23 19 14 16 21 28 29 30 30 32 31 30 34 22 24 -1 20 26 22 10 -16 17 20 31 15 2 -10 -19 -20 -20 -18 -11 3 -19 -13 6 -9 -20 -20 -20 -20 -20 -20 -20
20 19 17 7 -16 7 16 21 20 20 21 26 29 27 31 30 22 -9 13 -10 -17 -16 9 13 -12 -20 -2 -20 -18 -20 -20 -20 -20 -20 -20 -2 -20 -20 -20 -20 -20 -20 -20 -20 -20 -20 -20